<?xml version='1.0' encoding='UTF-8'?>
<gpx version="1.1" creator="https://www.komoot.de" xmlns="http://www.topografix.com/GPX/1/1" xmlns:xsi="http://www.w3.org/2001/XMLSchema-instance" xsi:schemaLocation="http://www.topografix.com/GPX/1/1 http://www.topografix.com/GPX/1/1/gpx.xsd">
  <metadata>
    <name>Grębków A,B</name>
    <author>
      <link href="https://www.komoot.de">
        <text>komoot</text>
        <type>text/html</type>
      </link>
    </author>
  </metadata>
  <trk>
    <name>Grębków A,B</name>
    <trkseg>
      <trkpt lat="52.171281" lon="22.223311">
        <ele>142.223161</ele>
        <time>2026-05-07T14:20:21.059Z</time>
      </trkpt>
      <trkpt lat="52.171366" lon="22.223341">
        <ele>142.223161</ele>
        <time>2026-05-07T14:20:28.820Z</time>
      </trkpt>
      <trkpt lat="52.171465" lon="22.222622">
        <ele>142.223161</ele>
        <time>2026-05-07T14:20:34.459Z</time>
      </trkpt>
      <trkpt lat="52.171554" lon="22.222223">
        <ele>142.223161</ele>
        <time>2026-05-07T14:20:37.645Z</time>
      </trkpt>
      <trkpt lat="52.171577" lon="22.221974">
        <ele>142.220109</ele>
        <time>2026-05-07T14:20:39.532Z</time>
      </trkpt>
      <trkpt lat="52.171576" lon="22.221779">
        <ele>142.213400</ele>
        <time>2026-05-07T14:20:41.005Z</time>
      </trkpt>
      <trkpt lat="52.171530" lon="22.221415">
        <ele>142.200615</ele>
        <time>2026-05-07T14:20:43.847Z</time>
      </trkpt>
      <trkpt lat="52.171581" lon="22.221253">
        <ele>142.194351</ele>
        <time>2026-05-07T14:20:45.252Z</time>
      </trkpt>
      <trkpt lat="52.171579" lon="22.221160">
        <ele>142.191149</ele>
        <time>2026-05-07T14:20:45.962Z</time>
      </trkpt>
      <trkpt lat="52.171539" lon="22.221038">
        <ele>142.186390</ele>
        <time>2026-05-07T14:20:47.028Z</time>
      </trkpt>
      <trkpt lat="52.171461" lon="22.220961">
        <ele>142.181276</ele>
        <time>2026-05-07T14:20:48.164Z</time>
      </trkpt>
      <trkpt lat="52.171392" lon="22.220955">
        <ele>142.177400</ele>
        <time>2026-05-07T14:20:49.035Z</time>
      </trkpt>
      <trkpt lat="52.171336" lon="22.220989">
        <ele>142.174048</ele>
        <time>2026-05-07T14:20:49.779Z</time>
      </trkpt>
      <trkpt lat="52.171194" lon="22.220771">
        <ele>142.163108</ele>
        <time>2026-05-07T14:20:52.925Z</time>
      </trkpt>
      <trkpt lat="52.171081" lon="22.220852">
        <ele>142.156184</ele>
        <time>2026-05-07T14:20:54.375Z</time>
      </trkpt>
      <trkpt lat="52.171057" lon="22.221076">
        <ele>142.148361</ele>
        <time>2026-05-07T14:20:55.956Z</time>
      </trkpt>
      <trkpt lat="52.171021" lon="22.221205">
        <ele>142.143485</ele>
        <time>2026-05-07T14:20:56.913Z</time>
      </trkpt>
      <trkpt lat="52.170909" lon="22.221416">
        <ele>142.133885</ele>
        <time>2026-05-07T14:20:58.749Z</time>
      </trkpt>
      <trkpt lat="52.170640" lon="22.221903">
        <ele>142.152505</ele>
        <time>2026-05-07T14:21:02.989Z</time>
      </trkpt>
      <trkpt lat="52.169925" lon="22.222763">
        <ele>142.290347</ele>
        <time>2026-05-07T14:21:13.008Z</time>
      </trkpt>
      <trkpt lat="52.169353" lon="22.223246">
        <ele>142.390281</ele>
        <time>2026-05-07T14:21:21.898Z</time>
      </trkpt>
      <trkpt lat="52.169094" lon="22.223397">
        <ele>142.652840</ele>
        <time>2026-05-07T14:21:26.017Z</time>
      </trkpt>
      <trkpt lat="52.168973" lon="22.223403">
        <ele>142.802126</ele>
        <time>2026-05-07T14:21:27.885Z</time>
      </trkpt>
      <trkpt lat="52.168883" lon="22.223353">
        <ele>142.919381</ele>
        <time>2026-05-07T14:21:29.383Z</time>
      </trkpt>
      <trkpt lat="52.168824" lon="22.223250">
        <ele>143.025979</ele>
        <time>2026-05-07T14:21:30.759Z</time>
      </trkpt>
      <trkpt lat="52.167974" lon="22.220952">
        <ele>145.356036</ele>
        <time>2026-05-07T14:21:57.134Z</time>
      </trkpt>
      <trkpt lat="52.167804" lon="22.220492">
        <ele>146.041810</ele>
        <time>2026-05-07T14:22:03.144Z</time>
      </trkpt>
      <trkpt lat="52.167589" lon="22.219914">
        <ele>146.905002</ele>
        <time>2026-05-07T14:22:11.056Z</time>
      </trkpt>
      <trkpt lat="52.167309" lon="22.219155">
        <ele>148.036001</ele>
        <time>2026-05-07T14:22:21.882Z</time>
      </trkpt>
      <trkpt lat="52.167170" lon="22.218765">
        <ele>148.591932</ele>
        <time>2026-05-07T14:22:27.569Z</time>
      </trkpt>
      <trkpt lat="52.167140" lon="22.218588">
        <ele>148.807462</ele>
        <time>2026-05-07T14:22:29.910Z</time>
      </trkpt>
      <trkpt lat="52.167140" lon="22.218586">
        <ele>148.809810</ele>
        <time>2026-05-07T14:22:29.936Z</time>
      </trkpt>
      <trkpt lat="52.167144" lon="22.216906">
        <ele>150.781636</ele>
        <time>2026-05-07T14:22:49.375Z</time>
      </trkpt>
      <trkpt lat="52.167156" lon="22.214527">
        <ele>152.566938</ele>
        <time>2026-05-07T14:23:11.411Z</time>
      </trkpt>
      <trkpt lat="52.167183" lon="22.212741">
        <ele>153.317356</ele>
        <time>2026-05-07T14:23:26.596Z</time>
      </trkpt>
      <trkpt lat="52.162314" lon="22.213839">
        <ele>153.784083</ele>
        <time>2026-05-07T14:24:26.243Z</time>
      </trkpt>
      <trkpt lat="52.161766" lon="22.213964">
        <ele>153.754747</ele>
        <time>2026-05-07T14:24:32.394Z</time>
      </trkpt>
      <trkpt lat="52.158884" lon="22.214597">
        <ele>153.381742</ele>
        <time>2026-05-07T14:25:06.088Z</time>
      </trkpt>
      <trkpt lat="52.156619" lon="22.215072">
        <ele>152.958150</ele>
        <time>2026-05-07T14:25:30.935Z</time>
      </trkpt>
      <trkpt lat="52.153922" lon="22.215666">
        <ele>155.341570</ele>
        <time>2026-05-07T14:26:11.792Z</time>
      </trkpt>
      <trkpt lat="52.153562" lon="22.215772">
        <ele>155.719522</ele>
        <time>2026-05-07T14:26:17.455Z</time>
      </trkpt>
      <trkpt lat="52.150509" lon="22.217011">
        <ele>159.131789</ele>
        <time>2026-05-07T14:27:05.600Z</time>
      </trkpt>
      <trkpt lat="52.150380" lon="22.216212">
        <ele>159.697000</ele>
        <time>2026-05-07T14:27:22.173Z</time>
      </trkpt>
      <trkpt lat="52.150164" lon="22.214493">
        <ele>161.216230</ele>
        <time>2026-05-07T14:27:58.517Z</time>
      </trkpt>
      <trkpt lat="52.149650" lon="22.211174">
        <ele>164.238015</ele>
        <time>2026-05-07T14:29:12.630Z</time>
      </trkpt>
      <trkpt lat="52.149550" lon="22.210522">
        <ele>164.776575</ele>
        <time>2026-05-07T14:29:26.339Z</time>
      </trkpt>
      <trkpt lat="52.149496" lon="22.210177">
        <ele>165.061897</ele>
        <time>2026-05-07T14:29:33.498Z</time>
      </trkpt>
      <trkpt lat="52.149319" lon="22.208952">
        <ele>165.273792</ele>
        <time>2026-05-07T14:29:57.385Z</time>
      </trkpt>
      <trkpt lat="52.149264" lon="22.208589">
        <ele>165.277918</ele>
        <time>2026-05-07T14:30:04.180Z</time>
      </trkpt>
      <trkpt lat="52.149209" lon="22.208503">
        <ele>165.279288</ele>
        <time>2026-05-07T14:30:06.422Z</time>
      </trkpt>
      <trkpt lat="52.150287" lon="22.206323">
        <ele>165.238509</ele>
        <time>2026-05-07T14:30:32.398Z</time>
      </trkpt>
      <trkpt lat="52.150578" lon="22.205732">
        <ele>165.207360</ele>
        <time>2026-05-07T14:30:40.148Z</time>
      </trkpt>
      <trkpt lat="52.151040" lon="22.204798">
        <ele>165.077156</ele>
        <time>2026-05-07T14:30:52.879Z</time>
      </trkpt>
      <trkpt lat="52.151552" lon="22.203761">
        <ele>164.753780</ele>
        <time>2026-05-07T14:31:05.534Z</time>
      </trkpt>
      <trkpt lat="52.151719" lon="22.203423">
        <ele>164.648349</ele>
        <time>2026-05-07T14:31:09.380Z</time>
      </trkpt>
      <trkpt lat="52.152479" lon="22.201884">
        <ele>163.815216</ele>
        <time>2026-05-07T14:31:26.294Z</time>
      </trkpt>
      <trkpt lat="52.152891" lon="22.200942">
        <ele>163.196481</ele>
        <time>2026-05-07T14:31:36.355Z</time>
      </trkpt>
      <trkpt lat="52.153056" lon="22.200420">
        <ele>162.879751</ele>
        <time>2026-05-07T14:31:39.986Z</time>
      </trkpt>
      <trkpt lat="52.153221" lon="22.199714">
        <ele>162.385919</ele>
        <time>2026-05-07T14:31:44.650Z</time>
      </trkpt>
      <trkpt lat="52.153343" lon="22.198844">
        <ele>161.802569</ele>
        <time>2026-05-07T14:31:49.883Z</time>
      </trkpt>
      <trkpt lat="52.153371" lon="22.198319">
        <ele>161.458104</ele>
        <time>2026-05-07T14:31:53.044Z</time>
      </trkpt>
      <trkpt lat="52.153377" lon="22.197659">
        <ele>161.026641</ele>
        <time>2026-05-07T14:31:56.944Z</time>
      </trkpt>
      <trkpt lat="52.153297" lon="22.196072">
        <ele>159.904446</ele>
        <time>2026-05-07T14:32:05.999Z</time>
      </trkpt>
      <trkpt lat="52.153240" lon="22.195722">
        <ele>159.648341</ele>
        <time>2026-05-07T14:32:08.138Z</time>
      </trkpt>
      <trkpt lat="52.153118" lon="22.195249">
        <ele>159.285460</ele>
        <time>2026-05-07T14:32:11.200Z</time>
      </trkpt>
      <trkpt lat="52.152908" lon="22.194481">
        <ele>158.758643</ele>
        <time>2026-05-07T14:32:16.326Z</time>
      </trkpt>
      <trkpt lat="52.152670" lon="22.193493">
        <ele>158.245818</ele>
        <time>2026-05-07T14:32:23.115Z</time>
      </trkpt>
      <trkpt lat="52.152519" lon="22.192492">
        <ele>157.747780</ele>
        <time>2026-05-07T14:32:29.651Z</time>
      </trkpt>
      <trkpt lat="52.152430" lon="22.191781">
        <ele>157.419476</ele>
        <time>2026-05-07T14:32:33.984Z</time>
      </trkpt>
      <trkpt lat="52.152382" lon="22.191405">
        <ele>157.279193</ele>
        <time>2026-05-07T14:32:36.233Z</time>
      </trkpt>
      <trkpt lat="52.152167" lon="22.189698">
        <ele>156.642671</ele>
        <time>2026-05-07T14:32:46.813Z</time>
      </trkpt>
      <trkpt lat="52.149973" lon="22.189387">
        <ele>157.368931</ele>
        <time>2026-05-07T14:33:26.081Z</time>
      </trkpt>
      <trkpt lat="52.148751" lon="22.189038">
        <ele>157.874381</ele>
        <time>2026-05-07T14:33:49.664Z</time>
      </trkpt>
      <trkpt lat="52.147749" lon="22.188974">
        <ele>157.657598</ele>
        <time>2026-05-07T14:34:04.696Z</time>
      </trkpt>
      <trkpt lat="52.147453" lon="22.188988">
        <ele>157.384773</ele>
        <time>2026-05-07T14:34:08.705Z</time>
      </trkpt>
      <trkpt lat="52.147070" lon="22.189060">
        <ele>157.029569</ele>
        <time>2026-05-07T14:34:13.884Z</time>
      </trkpt>
      <trkpt lat="52.146965" lon="22.189008">
        <ele>156.928462</ele>
        <time>2026-05-07T14:34:15.357Z</time>
      </trkpt>
      <trkpt lat="52.147636" lon="22.187371">
        <ele>156.019323</ele>
        <time>2026-05-07T14:34:32.005Z</time>
      </trkpt>
      <trkpt lat="52.149571" lon="22.183037">
        <ele>154.861744</ele>
        <time>2026-05-07T14:35:22.154Z</time>
      </trkpt>
      <trkpt lat="52.150864" lon="22.180095">
        <ele>155.609781</ele>
        <time>2026-05-07T14:36:00.853Z</time>
      </trkpt>
      <trkpt lat="52.151822" lon="22.177847">
        <ele>156.639450</ele>
        <time>2026-05-07T14:36:31.749Z</time>
      </trkpt>
      <trkpt lat="52.152117" lon="22.176200">
        <ele>157.395708</ele>
        <time>2026-05-07T14:36:50.268Z</time>
      </trkpt>
      <trkpt lat="52.152314" lon="22.174853">
        <ele>158.821049</ele>
        <time>2026-05-07T14:37:08.485Z</time>
      </trkpt>
      <trkpt lat="52.152267" lon="22.174879">
        <ele>158.909288</ele>
        <time>2026-05-07T14:37:12.024Z</time>
      </trkpt>
      <trkpt lat="52.152440" lon="22.173740">
        <ele>160.189210</ele>
        <time>2026-05-07T14:37:25.949Z</time>
      </trkpt>
      <trkpt lat="52.152542" lon="22.173081">
        <ele>160.841249</ele>
        <time>2026-05-07T14:37:33.472Z</time>
      </trkpt>
      <trkpt lat="52.152580" lon="22.172838">
        <ele>161.027372</ele>
        <time>2026-05-07T14:37:36.125Z</time>
      </trkpt>
      <trkpt lat="52.152827" lon="22.171243">
        <ele>162.248322</ele>
        <time>2026-05-07T14:37:51.158Z</time>
      </trkpt>
      <trkpt lat="52.152854" lon="22.171070">
        <ele>162.380812</ele>
        <time>2026-05-07T14:37:52.704Z</time>
      </trkpt>
      <trkpt lat="52.153070" lon="22.169678">
        <ele>163.459788</ele>
        <time>2026-05-07T14:38:06.226Z</time>
      </trkpt>
      <trkpt lat="52.153086" lon="22.169470">
        <ele>163.618713</ele>
        <time>2026-05-07T14:38:08.452Z</time>
      </trkpt>
      <trkpt lat="52.153095" lon="22.168954">
        <ele>164.010066</ele>
        <time>2026-05-07T14:38:13.953Z</time>
      </trkpt>
      <trkpt lat="52.152982" lon="22.167266">
        <ele>165.123558</ele>
        <time>2026-05-07T14:38:30.579Z</time>
      </trkpt>
      <trkpt lat="52.152995" lon="22.165992">
        <ele>165.412622</ele>
        <time>2026-05-07T14:38:41.018Z</time>
      </trkpt>
      <trkpt lat="52.152909" lon="22.165730">
        <ele>165.480032</ele>
        <time>2026-05-07T14:38:43.252Z</time>
      </trkpt>
      <trkpt lat="52.152565" lon="22.165316">
        <ele>165.638146</ele>
        <time>2026-05-07T14:38:48.222Z</time>
      </trkpt>
      <trkpt lat="52.152512" lon="22.165254">
        <ele>165.662268</ele>
        <time>2026-05-07T14:38:48.968Z</time>
      </trkpt>
      <trkpt lat="52.151146" lon="22.162585">
        <ele>165.259096</ele>
        <time>2026-05-07T14:39:12.702Z</time>
      </trkpt>
      <trkpt lat="52.151077" lon="22.162391">
        <ele>165.237378</ele>
        <time>2026-05-07T14:39:14.257Z</time>
      </trkpt>
      <trkpt lat="52.150982" lon="22.161954">
        <ele>165.192475</ele>
        <time>2026-05-07T14:39:17.485Z</time>
      </trkpt>
      <trkpt lat="52.150686" lon="22.159077">
        <ele>165.079681</ele>
        <time>2026-05-07T14:39:38.002Z</time>
      </trkpt>
      <trkpt lat="52.150599" lon="22.158645">
        <ele>165.113750</ele>
        <time>2026-05-07T14:39:41.335Z</time>
      </trkpt>
      <trkpt lat="52.150302" lon="22.157753">
        <ele>165.189793</ele>
        <time>2026-05-07T14:39:49.168Z</time>
      </trkpt>
      <trkpt lat="52.149810" lon="22.156347">
        <ele>165.397667</ele>
        <time>2026-05-07T14:40:02.308Z</time>
      </trkpt>
      <trkpt lat="52.149703" lon="22.155962">
        <ele>165.461304</ele>
        <time>2026-05-07T14:40:05.695Z</time>
      </trkpt>
      <trkpt lat="52.149660" lon="22.155695">
        <ele>165.502867</ele>
        <time>2026-05-07T14:40:07.837Z</time>
      </trkpt>
      <trkpt lat="52.149644" lon="22.155351">
        <ele>165.554811</ele>
        <time>2026-05-07T14:40:10.437Z</time>
      </trkpt>
      <trkpt lat="52.149690" lon="22.154439">
        <ele>165.607491</ele>
        <time>2026-05-07T14:40:17.451Z</time>
      </trkpt>
      <trkpt lat="52.149746" lon="22.153626">
        <ele>165.326697</ele>
        <time>2026-05-07T14:40:23.012Z</time>
      </trkpt>
      <trkpt lat="52.149840" lon="22.152788">
        <ele>165.034309</ele>
        <time>2026-05-07T14:40:28.379Z</time>
      </trkpt>
      <trkpt lat="52.150039" lon="22.151544">
        <ele>164.592690</ele>
        <time>2026-05-07T14:40:36.279Z</time>
      </trkpt>
      <trkpt lat="52.150156" lon="22.151018">
        <ele>164.399586</ele>
        <time>2026-05-07T14:40:39.598Z</time>
      </trkpt>
      <trkpt lat="52.150205" lon="22.150776">
        <ele>164.311633</ele>
        <time>2026-05-07T14:40:41.080Z</time>
      </trkpt>
      <trkpt lat="52.150368" lon="22.149975">
        <ele>164.020370</ele>
        <time>2026-05-07T14:40:46.280Z</time>
      </trkpt>
      <trkpt lat="52.150469" lon="22.149016">
        <ele>163.684543</ele>
        <time>2026-05-07T14:40:53.016Z</time>
      </trkpt>
      <trkpt lat="52.150483" lon="22.148623">
        <ele>163.674445</ele>
        <time>2026-05-07T14:40:56.083Z</time>
      </trkpt>
      <trkpt lat="52.150456" lon="22.146656">
        <ele>163.848079</ele>
        <time>2026-05-07T14:41:11.997Z</time>
      </trkpt>
      <trkpt lat="52.150517" lon="22.146147">
        <ele>163.893848</ele>
        <time>2026-05-07T14:41:15.992Z</time>
      </trkpt>
      <trkpt lat="52.152116" lon="22.133953">
        <ele>159.700588</ele>
        <time>2026-05-07T14:42:35.570Z</time>
      </trkpt>
      <trkpt lat="52.152428" lon="22.131768">
        <ele>159.475208</ele>
        <time>2026-05-07T14:42:51.684Z</time>
      </trkpt>
      <trkpt lat="52.152544" lon="22.131110">
        <ele>159.545878</ele>
        <time>2026-05-07T14:42:56.867Z</time>
      </trkpt>
      <trkpt lat="52.152613" lon="22.130874">
        <ele>159.581901</ele>
        <time>2026-05-07T14:42:58.854Z</time>
      </trkpt>
      <trkpt lat="52.153360" lon="22.129157">
        <ele>159.873144</ele>
        <time>2026-05-07T14:43:15.208Z</time>
      </trkpt>
      <trkpt lat="52.153624" lon="22.128634">
        <ele>160.007295</ele>
        <time>2026-05-07T14:43:20.771Z</time>
      </trkpt>
      <trkpt lat="52.153793" lon="22.128440">
        <ele>160.074030</ele>
        <time>2026-05-07T14:43:23.590Z</time>
      </trkpt>
      <trkpt lat="52.155190" lon="22.127422">
        <ele>160.114419</ele>
        <time>2026-05-07T14:43:43.442Z</time>
      </trkpt>
      <trkpt lat="52.155186" lon="22.122501">
        <ele>156.638074</ele>
        <time>2026-05-07T14:44:11.846Z</time>
      </trkpt>
      <trkpt lat="52.154944" lon="22.119866">
        <ele>154.905020</ele>
        <time>2026-05-07T14:44:26.825Z</time>
      </trkpt>
      <trkpt lat="52.153728" lon="22.114526">
        <ele>155.469414</ele>
        <time>2026-05-07T14:45:13.513Z</time>
      </trkpt>
      <trkpt lat="52.153558" lon="22.113708">
        <ele>155.578012</ele>
        <time>2026-05-07T14:45:18.832Z</time>
      </trkpt>
      <trkpt lat="52.153210" lon="22.110389">
        <ele>156.241177</ele>
        <time>2026-05-07T14:45:44.617Z</time>
      </trkpt>
      <trkpt lat="52.153128" lon="22.109533">
        <ele>156.817105</ele>
        <time>2026-05-07T14:45:54.086Z</time>
      </trkpt>
      <trkpt lat="52.152581" lon="22.103617">
        <ele>160.041979</ele>
        <time>2026-05-07T14:46:50.374Z</time>
      </trkpt>
      <trkpt lat="52.152289" lon="22.100946">
        <ele>160.291364</ele>
        <time>2026-05-07T14:47:07.759Z</time>
      </trkpt>
      <trkpt lat="52.152227" lon="22.100080">
        <ele>160.300863</ele>
        <time>2026-05-07T14:47:14.588Z</time>
      </trkpt>
      <trkpt lat="52.152058" lon="22.092531">
        <ele>162.682623</ele>
        <time>2026-05-07T14:48:18.908Z</time>
      </trkpt>
      <trkpt lat="52.151825" lon="22.082804">
        <ele>163.994992</ele>
        <time>2026-05-07T14:49:33.932Z</time>
      </trkpt>
      <trkpt lat="52.151916" lon="22.082811">
        <ele>163.998443</ele>
        <time>2026-05-07T14:49:36.653Z</time>
      </trkpt>
      <trkpt lat="52.151825" lon="22.082804">
        <ele>164.001893</ele>
        <time>2026-05-07T14:49:39.296Z</time>
      </trkpt>
      <trkpt lat="52.151866" lon="22.081741">
        <ele>163.968286</ele>
        <time>2026-05-07T14:49:46.567Z</time>
      </trkpt>
      <trkpt lat="52.151943" lon="22.080986">
        <ele>163.831613</ele>
        <time>2026-05-07T14:49:51.520Z</time>
      </trkpt>
      <trkpt lat="52.152467" lon="22.078651">
        <ele>163.469247</ele>
        <time>2026-05-07T14:50:08.350Z</time>
      </trkpt>
      <trkpt lat="52.152685" lon="22.077418">
        <ele>163.411972</ele>
        <time>2026-05-07T14:50:19.302Z</time>
      </trkpt>
      <trkpt lat="52.152796" lon="22.076368">
        <ele>163.344392</ele>
        <time>2026-05-07T14:50:26.849Z</time>
      </trkpt>
      <trkpt lat="52.154139" lon="22.076329">
        <ele>161.594207</ele>
        <time>2026-05-07T14:50:38.993Z</time>
      </trkpt>
      <trkpt lat="52.157000" lon="22.076362">
        <ele>158.300125</ele>
        <time>2026-05-07T14:51:06.417Z</time>
      </trkpt>
      <trkpt lat="52.157339" lon="22.076314">
        <ele>157.959163</ele>
        <time>2026-05-07T14:51:09.790Z</time>
      </trkpt>
      <trkpt lat="52.157679" lon="22.076178">
        <ele>157.608369</ele>
        <time>2026-05-07T14:51:13.269Z</time>
      </trkpt>
      <trkpt lat="52.160225" lon="22.074646">
        <ele>155.468533</ele>
        <time>2026-05-07T14:51:40.521Z</time>
      </trkpt>
      <trkpt lat="52.161449" lon="22.073838">
        <ele>154.862611</ele>
        <time>2026-05-07T14:51:54.449Z</time>
      </trkpt>
      <trkpt lat="52.162108" lon="22.073207">
        <ele>155.011798</ele>
        <time>2026-05-07T14:52:04.857Z</time>
      </trkpt>
      <trkpt lat="52.162304" lon="22.073019">
        <ele>155.066115</ele>
        <time>2026-05-07T14:52:08.028Z</time>
      </trkpt>
      <trkpt lat="52.162570" lon="22.072769">
        <ele>155.139450</ele>
        <time>2026-05-07T14:52:12.314Z</time>
      </trkpt>
      <trkpt lat="52.164458" lon="22.071020">
        <ele>154.941190</ele>
        <time>2026-05-07T14:52:36.976Z</time>
      </trkpt>
      <trkpt lat="52.165358" lon="22.070110">
        <ele>154.786850</ele>
        <time>2026-05-07T14:52:48.412Z</time>
      </trkpt>
      <trkpt lat="52.169384" lon="22.066576">
        <ele>154.142860</ele>
        <time>2026-05-07T14:53:41.630Z</time>
      </trkpt>
      <trkpt lat="52.169515" lon="22.066461">
        <ele>154.023392</ele>
        <time>2026-05-07T14:53:43.334Z</time>
      </trkpt>
      <trkpt lat="52.170078" lon="22.065962">
        <ele>153.508838</ele>
        <time>2026-05-07T14:53:49.948Z</time>
      </trkpt>
      <trkpt lat="52.170392" lon="22.065687">
        <ele>153.222632</ele>
        <time>2026-05-07T14:53:53.517Z</time>
      </trkpt>
      <trkpt lat="52.170670" lon="22.065442">
        <ele>152.968883</ele>
        <time>2026-05-07T14:53:56.587Z</time>
      </trkpt>
      <trkpt lat="52.172116" lon="22.063871">
        <ele>150.746129</ele>
        <time>2026-05-07T14:54:12.727Z</time>
      </trkpt>
      <trkpt lat="52.172353" lon="22.063605">
        <ele>150.352213</ele>
        <time>2026-05-07T14:54:15.392Z</time>
      </trkpt>
      <trkpt lat="52.172886" lon="22.062996">
        <ele>149.955326</ele>
        <time>2026-05-07T14:54:21.611Z</time>
      </trkpt>
      <trkpt lat="52.173056" lon="22.062803">
        <ele>149.841876</ele>
        <time>2026-05-07T14:54:23.648Z</time>
      </trkpt>
      <trkpt lat="52.174126" lon="22.061340">
        <ele>149.059062</ele>
        <time>2026-05-07T14:54:40.229Z</time>
      </trkpt>
      <trkpt lat="52.174476" lon="22.060863">
        <ele>148.788991</ele>
        <time>2026-05-07T14:54:45.410Z</time>
      </trkpt>
      <trkpt lat="52.174581" lon="22.060720">
        <ele>148.707994</ele>
        <time>2026-05-07T14:54:46.872Z</time>
      </trkpt>
      <trkpt lat="52.174626" lon="22.060641">
        <ele>148.668845</ele>
        <time>2026-05-07T14:54:47.572Z</time>
      </trkpt>
      <trkpt lat="52.174639" lon="22.060450">
        <ele>148.599069</ele>
        <time>2026-05-07T14:54:48.790Z</time>
      </trkpt>
      <trkpt lat="52.173247" lon="22.053607">
        <ele>143.413873</ele>
        <time>2026-05-07T14:55:30.026Z</time>
      </trkpt>
      <trkpt lat="52.173146" lon="22.053211">
        <ele>143.361017</ele>
        <time>2026-05-07T14:55:33.062Z</time>
      </trkpt>
      <trkpt lat="52.173007" lon="22.052762">
        <ele>143.299030</ele>
        <time>2026-05-07T14:55:36.596Z</time>
      </trkpt>
      <trkpt lat="52.172997" lon="22.052464">
        <ele>143.262248</ele>
        <time>2026-05-07T14:55:38.632Z</time>
      </trkpt>
      <trkpt lat="52.173595" lon="22.052293">
        <ele>143.140241</ele>
        <time>2026-05-07T14:55:45.998Z</time>
      </trkpt>
      <trkpt lat="52.174215" lon="22.052311">
        <ele>143.301113</ele>
        <time>2026-05-07T14:55:54.270Z</time>
      </trkpt>
      <trkpt lat="52.175569" lon="22.052411">
        <ele>144.015839</ele>
        <time>2026-05-07T14:56:14.025Z</time>
      </trkpt>
      <trkpt lat="52.175664" lon="22.052407">
        <ele>144.003486</ele>
        <time>2026-05-07T14:56:15.217Z</time>
      </trkpt>
      <trkpt lat="52.176172" lon="22.052135">
        <ele>143.522505</ele>
        <time>2026-05-07T14:56:20.865Z</time>
      </trkpt>
      <trkpt lat="52.176728" lon="22.051729">
        <ele>142.974492</ele>
        <time>2026-05-07T14:56:26.448Z</time>
      </trkpt>
      <trkpt lat="52.177208" lon="22.050941">
        <ele>142.394559</ele>
        <time>2026-05-07T14:56:32.672Z</time>
      </trkpt>
      <trkpt lat="52.178435" lon="22.048730">
        <ele>141.655926</ele>
        <time>2026-05-07T14:56:52.888Z</time>
      </trkpt>
      <trkpt lat="52.178531" lon="22.048560">
        <ele>141.668195</ele>
        <time>2026-05-07T14:56:54.603Z</time>
      </trkpt>
      <trkpt lat="52.180089" lon="22.045794">
        <ele>141.930442</ele>
        <time>2026-05-07T14:57:22.965Z</time>
      </trkpt>
      <trkpt lat="52.180524" lon="22.043855">
        <ele>142.202006</ele>
        <time>2026-05-07T14:57:38.727Z</time>
      </trkpt>
      <trkpt lat="52.181637" lon="22.038546">
        <ele>143.730589</ele>
        <time>2026-05-07T14:58:25.066Z</time>
      </trkpt>
      <trkpt lat="52.182415" lon="22.034108">
        <ele>144.277099</ele>
        <time>2026-05-07T14:59:00.468Z</time>
      </trkpt>
      <trkpt lat="52.183923" lon="22.030151">
        <ele>144.148973</ele>
        <time>2026-05-07T14:59:33.726Z</time>
      </trkpt>
      <trkpt lat="52.184234" lon="22.029261">
        <ele>144.050769</ele>
        <time>2026-05-07T14:59:40.601Z</time>
      </trkpt>
      <trkpt lat="52.184464" lon="22.025852">
        <ele>143.754881</ele>
        <time>2026-05-07T15:00:04.922Z</time>
      </trkpt>
      <trkpt lat="52.184969" lon="22.015731">
        <ele>142.710372</ele>
        <time>2026-05-07T15:01:14.967Z</time>
      </trkpt>
      <trkpt lat="52.184963" lon="22.014658">
        <ele>142.882663</ele>
        <time>2026-05-07T15:01:23.677Z</time>
      </trkpt>
      <trkpt lat="52.184730" lon="22.010617">
        <ele>143.782767</ele>
        <time>2026-05-07T15:01:56.296Z</time>
      </trkpt>
      <trkpt lat="52.184658" lon="22.010182">
        <ele>143.893900</ele>
        <time>2026-05-07T15:02:00.166Z</time>
      </trkpt>
      <trkpt lat="52.184523" lon="22.009745">
        <ele>144.011723</ele>
        <time>2026-05-07T15:02:04.449Z</time>
      </trkpt>
      <trkpt lat="52.183729" lon="22.007499">
        <ele>144.290975</ele>
        <time>2026-05-07T15:02:25.815Z</time>
      </trkpt>
      <trkpt lat="52.182771" lon="22.005181">
        <ele>142.233543</ele>
        <time>2026-05-07T15:02:41.791Z</time>
      </trkpt>
      <trkpt lat="52.181919" lon="22.003455">
        <ele>139.464351</ele>
        <time>2026-05-07T15:02:53.250Z</time>
      </trkpt>
      <trkpt lat="52.181230" lon="22.001372">
        <ele>137.828416</ele>
        <time>2026-05-07T15:03:06.980Z</time>
      </trkpt>
      <trkpt lat="52.180274" lon="21.998677">
        <ele>137.475618</ele>
        <time>2026-05-07T15:03:29.077Z</time>
      </trkpt>
      <trkpt lat="52.179854" lon="21.997197">
        <ele>137.985244</ele>
        <time>2026-05-07T15:03:43.501Z</time>
      </trkpt>
      <trkpt lat="52.179777" lon="21.996535">
        <ele>138.353855</ele>
        <time>2026-05-07T15:03:49.754Z</time>
      </trkpt>
      <trkpt lat="52.179796" lon="21.995728">
        <ele>138.795656</ele>
        <time>2026-05-07T15:03:57.092Z</time>
      </trkpt>
      <trkpt lat="52.179934" lon="21.994306">
        <ele>139.564081</ele>
        <time>2026-05-07T15:04:10.071Z</time>
      </trkpt>
      <trkpt lat="52.180222" lon="21.992011">
        <ele>140.757113</ele>
        <time>2026-05-07T15:04:31.085Z</time>
      </trkpt>
      <trkpt lat="52.180231" lon="21.991523">
        <ele>140.923228</ele>
        <time>2026-05-07T15:04:35.437Z</time>
      </trkpt>
      <trkpt lat="52.180204" lon="21.990999">
        <ele>141.102146</ele>
        <time>2026-05-07T15:04:40.062Z</time>
      </trkpt>
      <trkpt lat="52.180018" lon="21.989192">
        <ele>141.695003</ele>
        <time>2026-05-07T15:04:55.040Z</time>
      </trkpt>
      <trkpt lat="52.180006" lon="21.988671">
        <ele>141.643883</ele>
        <time>2026-05-07T15:04:58.981Z</time>
      </trkpt>
      <trkpt lat="52.180042" lon="21.984332">
        <ele>140.865190</ele>
        <time>2026-05-07T15:05:28.132Z</time>
      </trkpt>
      <trkpt lat="52.180479" lon="21.978009">
        <ele>138.557913</ele>
        <time>2026-05-07T15:06:08.256Z</time>
      </trkpt>
      <trkpt lat="52.180539" lon="21.975252">
        <ele>137.942924</ele>
        <time>2026-05-07T15:06:27.545Z</time>
      </trkpt>
      <trkpt lat="52.180489" lon="21.974934">
        <ele>137.877356</ele>
        <time>2026-05-07T15:06:29.688Z</time>
      </trkpt>
      <trkpt lat="52.180126" lon="21.973906">
        <ele>137.454078</ele>
        <time>2026-05-07T15:06:37.142Z</time>
      </trkpt>
      <trkpt lat="52.180104" lon="21.973003">
        <ele>137.086532</ele>
        <time>2026-05-07T15:06:42.713Z</time>
      </trkpt>
      <trkpt lat="52.180047" lon="21.970606">
        <ele>136.180814</ele>
        <time>2026-05-07T15:06:58.027Z</time>
      </trkpt>
      <trkpt lat="52.179951" lon="21.968589">
        <ele>135.595470</ele>
        <time>2026-05-07T15:07:10.893Z</time>
      </trkpt>
      <trkpt lat="52.179881" lon="21.968197">
        <ele>135.595154</ele>
        <time>2026-05-07T15:07:13.670Z</time>
      </trkpt>
      <trkpt lat="52.179732" lon="21.967808">
        <ele>135.594799</ele>
        <time>2026-05-07T15:07:16.955Z</time>
      </trkpt>
      <trkpt lat="52.178915" lon="21.966065">
        <ele>135.610660</ele>
        <time>2026-05-07T15:07:34.078Z</time>
      </trkpt>
      <trkpt lat="52.178454" lon="21.964938">
        <ele>135.658464</ele>
        <time>2026-05-07T15:07:44.254Z</time>
      </trkpt>
      <trkpt lat="52.178277" lon="21.964404">
        <ele>135.679884</ele>
        <time>2026-05-07T15:07:48.469Z</time>
      </trkpt>
      <trkpt lat="52.178205" lon="21.964090">
        <ele>135.691713</ele>
        <time>2026-05-07T15:07:50.764Z</time>
      </trkpt>
      <trkpt lat="52.178193" lon="21.963790">
        <ele>135.711022</ele>
        <time>2026-05-07T15:07:52.913Z</time>
      </trkpt>
      <trkpt lat="52.178246" lon="21.963300">
        <ele>135.757187</ele>
        <time>2026-05-07T15:07:56.581Z</time>
      </trkpt>
      <trkpt lat="52.178442" lon="21.962588">
        <ele>135.829599</ele>
        <time>2026-05-07T15:08:02.542Z</time>
      </trkpt>
      <trkpt lat="52.178557" lon="21.962222">
        <ele>135.867756</ele>
        <time>2026-05-07T15:08:05.746Z</time>
      </trkpt>
      <trkpt lat="52.178982" lon="21.960775">
        <ele>136.133470</ele>
        <time>2026-05-07T15:08:18.153Z</time>
      </trkpt>
      <trkpt lat="52.179032" lon="21.960426">
        <ele>136.248546</ele>
        <time>2026-05-07T15:08:21.108Z</time>
      </trkpt>
      <trkpt lat="52.179071" lon="21.959795">
        <ele>136.452176</ele>
        <time>2026-05-07T15:08:26.587Z</time>
      </trkpt>
      <trkpt lat="52.179146" lon="21.959266">
        <ele>136.626509</ele>
        <time>2026-05-07T15:08:31.278Z</time>
      </trkpt>
      <trkpt lat="52.179269" lon="21.959003">
        <ele>136.732712</ele>
        <time>2026-05-07T15:08:34.103Z</time>
      </trkpt>
      <trkpt lat="52.179611" lon="21.958608">
        <ele>136.915083</ele>
        <time>2026-05-07T15:08:39.885Z</time>
      </trkpt>
      <trkpt lat="52.178789" lon="21.957547">
        <ele>136.970302</ele>
        <time>2026-05-07T15:08:53.185Z</time>
      </trkpt>
      <trkpt lat="52.178678" lon="21.957326">
        <ele>136.979529</ele>
        <time>2026-05-07T15:08:55.054Z</time>
      </trkpt>
      <trkpt lat="52.178681" lon="21.957130">
        <ele>136.985862</ele>
        <time>2026-05-07T15:08:56.314Z</time>
      </trkpt>
      <trkpt lat="52.178786" lon="21.956248">
        <ele>136.990413</ele>
        <time>2026-05-07T15:09:02.207Z</time>
      </trkpt>
      <trkpt lat="52.178826" lon="21.955087">
        <ele>136.928112</ele>
        <time>2026-05-07T15:09:10.202Z</time>
      </trkpt>
      <trkpt lat="52.178807" lon="21.954346">
        <ele>136.888376</ele>
        <time>2026-05-07T15:09:15.478Z</time>
      </trkpt>
      <trkpt lat="52.178247" lon="21.953472">
        <ele>136.932343</ele>
        <time>2026-05-07T15:09:25.412Z</time>
      </trkpt>
      <trkpt lat="52.177405" lon="21.952886">
        <ele>137.172855</ele>
        <time>2026-05-07T15:09:37.558Z</time>
      </trkpt>
      <trkpt lat="52.177191" lon="21.952804">
        <ele>137.230607</ele>
        <time>2026-05-07T15:09:40.312Z</time>
      </trkpt>
      <trkpt lat="52.177069" lon="21.952790">
        <ele>137.262738</ele>
        <time>2026-05-07T15:09:42.331Z</time>
      </trkpt>
      <trkpt lat="52.176977" lon="21.952783">
        <ele>137.286935</ele>
        <time>2026-05-07T15:09:43.882Z</time>
      </trkpt>
      <trkpt lat="52.176852" lon="21.952773">
        <ele>137.319814</ele>
        <time>2026-05-07T15:09:45.926Z</time>
      </trkpt>
      <trkpt lat="52.176760" lon="21.952727">
        <ele>137.315540</ele>
        <time>2026-05-07T15:09:47.011Z</time>
      </trkpt>
      <trkpt lat="52.176732" lon="21.952628">
        <ele>137.311503</ele>
        <time>2026-05-07T15:09:47.812Z</time>
      </trkpt>
      <trkpt lat="52.176716" lon="21.952427">
        <ele>137.304000</ele>
        <time>2026-05-07T15:09:49.214Z</time>
      </trkpt>
      <trkpt lat="52.176784" lon="21.950730">
        <ele>137.241041</ele>
        <time>2026-05-07T15:10:00.641Z</time>
      </trkpt>
      <trkpt lat="52.176673" lon="21.948083">
        <ele>137.967259</ele>
        <time>2026-05-07T15:10:21.699Z</time>
      </trkpt>
      <trkpt lat="52.176419" lon="21.945398">
        <ele>139.060651</ele>
        <time>2026-05-07T15:10:47.895Z</time>
      </trkpt>
      <trkpt lat="52.176216" lon="21.943794">
        <ele>139.568731</ele>
        <time>2026-05-07T15:10:59.886Z</time>
      </trkpt>
      <trkpt lat="52.175912" lon="21.942091">
        <ele>139.553359</ele>
        <time>2026-05-07T15:11:12.029Z</time>
      </trkpt>
      <trkpt lat="52.175572" lon="21.940426">
        <ele>139.519815</ele>
        <time>2026-05-07T15:11:25.802Z</time>
      </trkpt>
      <trkpt lat="52.175571" lon="21.940363">
        <ele>139.518072</ele>
        <time>2026-05-07T15:11:26.322Z</time>
      </trkpt>
      <trkpt lat="52.175573" lon="21.940316">
        <ele>139.516769</ele>
        <time>2026-05-07T15:11:26.712Z</time>
      </trkpt>
      <trkpt lat="52.174626" lon="21.935824">
        <ele>139.080843</ele>
        <time>2026-05-07T15:11:59.540Z</time>
      </trkpt>
      <trkpt lat="52.174420" lon="21.934745">
        <ele>138.967208</ele>
        <time>2026-05-07T15:12:07.211Z</time>
      </trkpt>
      <trkpt lat="52.174367" lon="21.934162">
        <ele>138.908647</ele>
        <time>2026-05-07T15:12:11.277Z</time>
      </trkpt>
      <trkpt lat="52.172924" lon="21.927232">
        <ele>138.820637</ele>
        <time>2026-05-07T15:13:04.177Z</time>
      </trkpt>
      <trkpt lat="52.172188" lon="21.923592">
        <ele>139.527951</ele>
        <time>2026-05-07T15:13:35.164Z</time>
      </trkpt>
      <trkpt lat="52.171744" lon="21.921622">
        <ele>139.759856</ele>
        <time>2026-05-07T15:13:50.509Z</time>
      </trkpt>
      <trkpt lat="52.168576" lon="21.906550">
        <ele>141.419916</ele>
        <time>2026-05-07T15:15:52.317Z</time>
      </trkpt>
      <trkpt lat="52.168499" lon="21.906195">
        <ele>141.420627</ele>
        <time>2026-05-07T15:15:55.076Z</time>
      </trkpt>
      <trkpt lat="52.168070" lon="21.903921">
        <ele>141.235800</ele>
        <time>2026-05-07T15:16:11.419Z</time>
      </trkpt>
      <trkpt lat="52.166238" lon="21.895390">
        <ele>140.417880</ele>
        <time>2026-05-07T15:17:13.743Z</time>
      </trkpt>
      <trkpt lat="52.165596" lon="21.892151">
        <ele>141.466885</ele>
        <time>2026-05-07T15:17:43.067Z</time>
      </trkpt>
      <trkpt lat="52.165339" lon="21.890948">
        <ele>142.079747</ele>
        <time>2026-05-07T15:17:53.949Z</time>
      </trkpt>
      <trkpt lat="52.165217" lon="21.890625">
        <ele>142.307681</ele>
        <time>2026-05-07T15:17:57.203Z</time>
      </trkpt>
      <trkpt lat="52.164765" lon="21.890723">
        <ele>142.754373</ele>
        <time>2026-05-07T15:18:03.989Z</time>
      </trkpt>
      <trkpt lat="52.165217" lon="21.890625">
        <ele>143.201064</ele>
        <time>2026-05-07T15:18:10.991Z</time>
      </trkpt>
      <trkpt lat="52.165535" lon="21.890513">
        <ele>143.519773</ele>
        <time>2026-05-07T15:18:16.074Z</time>
      </trkpt>
      <trkpt lat="52.165868" lon="21.890488">
        <ele>143.893042</ele>
        <time>2026-05-07T15:18:21.526Z</time>
      </trkpt>
      <trkpt lat="52.166059" lon="21.890435">
        <ele>144.118002</ele>
        <time>2026-05-07T15:18:24.858Z</time>
      </trkpt>
      <trkpt lat="52.166212" lon="21.890337">
        <ele>144.308869</ele>
        <time>2026-05-07T15:18:27.695Z</time>
      </trkpt>
      <trkpt lat="52.166400" lon="21.890149">
        <ele>144.564948</ele>
        <time>2026-05-07T15:18:31.520Z</time>
      </trkpt>
      <trkpt lat="52.166599" lon="21.889871">
        <ele>144.869230</ele>
        <time>2026-05-07T15:18:35.763Z</time>
      </trkpt>
      <trkpt lat="52.166885" lon="21.889472">
        <ele>145.306290</ele>
        <time>2026-05-07T15:18:41.528Z</time>
      </trkpt>
      <trkpt lat="52.166809" lon="21.889318">
        <ele>145.447058</ele>
        <time>2026-05-07T15:18:43.311Z</time>
      </trkpt>
      <trkpt lat="52.166797" lon="21.889023">
        <ele>145.657612</ele>
        <time>2026-05-07T15:18:45.938Z</time>
      </trkpt>
      <trkpt lat="52.166591" lon="21.879714">
        <ele>146.006286</ele>
        <time>2026-05-07T15:19:53.983Z</time>
      </trkpt>
      <trkpt lat="52.166493" lon="21.875241">
        <ele>146.489485</ele>
        <time>2026-05-07T15:20:26.969Z</time>
      </trkpt>
      <trkpt lat="52.166419" lon="21.872127">
        <ele>148.231894</ele>
        <time>2026-05-07T15:20:55.749Z</time>
      </trkpt>
      <trkpt lat="52.166339" lon="21.871719">
        <ele>148.531906</ele>
        <time>2026-05-07T15:21:00.430Z</time>
      </trkpt>
      <trkpt lat="52.166151" lon="21.871281">
        <ele>148.839642</ele>
        <time>2026-05-07T15:21:06.008Z</time>
      </trkpt>
      <trkpt lat="52.165785" lon="21.870524">
        <ele>149.247597</ele>
        <time>2026-05-07T15:21:15.576Z</time>
      </trkpt>
      <trkpt lat="52.164619" lon="21.868509">
        <ele>149.913764</ele>
        <time>2026-05-07T15:21:36.722Z</time>
      </trkpt>
      <trkpt lat="52.163345" lon="21.866196">
        <ele>149.577198</ele>
        <time>2026-05-07T15:21:57.763Z</time>
      </trkpt>
      <trkpt lat="52.161856" lon="21.863491">
        <ele>149.135909</ele>
        <time>2026-05-07T15:22:22.266Z</time>
      </trkpt>
      <trkpt lat="52.161080" lon="21.862181">
        <ele>149.536151</ele>
        <time>2026-05-07T15:22:36.406Z</time>
      </trkpt>
      <trkpt lat="52.161026" lon="21.862115">
        <ele>149.600109</ele>
        <time>2026-05-07T15:22:37.629Z</time>
      </trkpt>
      <trkpt lat="52.160937" lon="21.862085">
        <ele>149.686232</ele>
        <time>2026-05-07T15:22:38.895Z</time>
      </trkpt>
      <trkpt lat="52.160912" lon="21.861810">
        <ele>149.847841</ele>
        <time>2026-05-07T15:22:41.148Z</time>
      </trkpt>
      <trkpt lat="52.160657" lon="21.860539">
        <ele>150.625211</ele>
        <time>2026-05-07T15:22:54.062Z</time>
      </trkpt>
      <trkpt lat="52.160595" lon="21.860229">
        <ele>150.846976</ele>
        <time>2026-05-07T15:22:57.682Z</time>
      </trkpt>
      <trkpt lat="52.159879" lon="21.856723">
        <ele>153.141124</ele>
        <time>2026-05-07T15:23:37.106Z</time>
      </trkpt>
      <trkpt lat="52.159853" lon="21.856433">
        <ele>152.947949</ele>
        <time>2026-05-07T15:23:38.901Z</time>
      </trkpt>
      <trkpt lat="52.159876" lon="21.856183">
        <ele>152.781326</ele>
        <time>2026-05-07T15:23:40.359Z</time>
      </trkpt>
      <trkpt lat="52.159767" lon="21.856137">
        <ele>152.660352</ele>
        <time>2026-05-07T15:23:41.381Z</time>
      </trkpt>
      <trkpt lat="52.159514" lon="21.856043">
        <ele>152.381550</ele>
        <time>2026-05-07T15:23:43.616Z</time>
      </trkpt>
      <trkpt lat="52.159296" lon="21.855891">
        <ele>152.126797</ele>
        <time>2026-05-07T15:23:45.572Z</time>
      </trkpt>
      <trkpt lat="52.157942" lon="21.854661">
        <ele>148.877275</ele>
        <time>2026-05-07T15:23:58.136Z</time>
      </trkpt>
      <trkpt lat="52.157699" lon="21.854476">
        <ele>148.238327</ele>
        <time>2026-05-07T15:24:00.648Z</time>
      </trkpt>
      <trkpt lat="52.157541" lon="21.854419">
        <ele>147.852804</ele>
        <time>2026-05-07T15:24:02.230Z</time>
      </trkpt>
      <trkpt lat="52.156891" lon="21.854473">
        <ele>147.687159</ele>
        <time>2026-05-07T15:24:09.020Z</time>
      </trkpt>
      <trkpt lat="52.156637" lon="21.854531">
        <ele>147.796107</ele>
        <time>2026-05-07T15:24:12.177Z</time>
      </trkpt>
      <trkpt lat="52.156521" lon="21.854582">
        <ele>147.847142</ele>
        <time>2026-05-07T15:24:13.856Z</time>
      </trkpt>
      <trkpt lat="52.155833" lon="21.855012">
        <ele>148.160139</ele>
        <time>2026-05-07T15:24:24.885Z</time>
      </trkpt>
      <trkpt lat="52.155609" lon="21.855114">
        <ele>148.330765</ele>
        <time>2026-05-07T15:24:28.668Z</time>
      </trkpt>
      <trkpt lat="52.155358" lon="21.855131">
        <ele>148.880262</ele>
        <time>2026-05-07T15:24:32.909Z</time>
      </trkpt>
      <trkpt lat="52.155172" lon="21.855030">
        <ele>149.309092</ele>
        <time>2026-05-07T15:24:36.439Z</time>
      </trkpt>
      <trkpt lat="52.154978" lon="21.854845">
        <ele>149.800727</ele>
        <time>2026-05-07T15:24:40.694Z</time>
      </trkpt>
      <trkpt lat="52.154776" lon="21.854576">
        <ele>150.371293</ele>
        <time>2026-05-07T15:24:46.021Z</time>
      </trkpt>
      <trkpt lat="52.153730" lon="21.852737">
        <ele>153.283602</ele>
        <time>2026-05-07T15:25:16.675Z</time>
      </trkpt>
      <trkpt lat="52.152639" lon="21.850890">
        <ele>154.934483</ele>
        <time>2026-05-07T15:25:40.042Z</time>
      </trkpt>
      <trkpt lat="52.152581" lon="21.850711">
        <ele>154.925921</ele>
        <time>2026-05-07T15:25:41.410Z</time>
      </trkpt>
      <trkpt lat="52.152592" lon="21.850451">
        <ele>154.914898</ele>
        <time>2026-05-07T15:25:43.186Z</time>
      </trkpt>
      <trkpt lat="52.152842" lon="21.849591">
        <ele>154.874648</ele>
        <time>2026-05-07T15:25:49.304Z</time>
      </trkpt>
      <trkpt lat="52.153003" lon="21.849041">
        <ele>154.848874</ele>
        <time>2026-05-07T15:25:53.049Z</time>
      </trkpt>
      <trkpt lat="52.154167" lon="21.845042">
        <ele>154.893575</ele>
        <time>2026-05-07T15:26:24.365Z</time>
      </trkpt>
      <trkpt lat="52.155101" lon="21.841937">
        <ele>156.731174</ele>
        <time>2026-05-07T15:26:56.085Z</time>
      </trkpt>
      <trkpt lat="52.155650" lon="21.839997">
        <ele>158.842188</ele>
        <time>2026-05-07T15:27:18.048Z</time>
      </trkpt>
      <trkpt lat="52.157649" lon="21.833190">
        <ele>167.998031</ele>
        <time>2026-05-07T15:28:44.476Z</time>
      </trkpt>
      <trkpt lat="52.157728" lon="21.833046">
        <ele>168.188822</ele>
        <time>2026-05-07T15:28:46.275Z</time>
      </trkpt>
      <trkpt lat="52.158160" lon="21.832435">
        <ele>168.673407</ele>
        <time>2026-05-07T15:28:54.515Z</time>
      </trkpt>
      <trkpt lat="52.158319" lon="21.832159">
        <ele>168.870200</ele>
        <time>2026-05-07T15:28:57.677Z</time>
      </trkpt>
      <trkpt lat="52.158638" lon="21.831382">
        <ele>169.356152</ele>
        <time>2026-05-07T15:29:05.384Z</time>
      </trkpt>
      <trkpt lat="52.159109" lon="21.830511">
        <ele>169.717932</ele>
        <time>2026-05-07T15:29:15.838Z</time>
      </trkpt>
      <trkpt lat="52.159446" lon="21.829734">
        <ele>169.781417</ele>
        <time>2026-05-07T15:29:23.842Z</time>
      </trkpt>
      <trkpt lat="52.159704" lon="21.829098">
        <ele>169.832285</ele>
        <time>2026-05-07T15:29:29.199Z</time>
      </trkpt>
      <trkpt lat="52.159824" lon="21.828679">
        <ele>169.863135</ele>
        <time>2026-05-07T15:29:32.201Z</time>
      </trkpt>
      <trkpt lat="52.160050" lon="21.827798">
        <ele>169.586256</ele>
        <time>2026-05-07T15:29:38.070Z</time>
      </trkpt>
      <trkpt lat="52.160138" lon="21.827253">
        <ele>169.361984</ele>
        <time>2026-05-07T15:29:41.445Z</time>
      </trkpt>
      <trkpt lat="52.160327" lon="21.825986">
        <ele>168.843085</ele>
        <time>2026-05-07T15:29:49.554Z</time>
      </trkpt>
      <trkpt lat="52.160375" lon="21.825767">
        <ele>168.750538</ele>
        <time>2026-05-07T15:29:51.166Z</time>
      </trkpt>
      <trkpt lat="52.160474" lon="21.825534">
        <ele>168.717913</ele>
        <time>2026-05-07T15:29:53.188Z</time>
      </trkpt>
      <trkpt lat="52.160760" lon="21.825222">
        <ele>168.738478</ele>
        <time>2026-05-07T15:29:57.311Z</time>
      </trkpt>
      <trkpt lat="52.162185" lon="21.824018">
        <ele>168.837613</ele>
        <time>2026-05-07T15:30:17.378Z</time>
      </trkpt>
      <trkpt lat="52.162303" lon="21.823727">
        <ele>168.853013</ele>
        <time>2026-05-07T15:30:19.845Z</time>
      </trkpt>
      <trkpt lat="52.162463" lon="21.823049">
        <ele>168.885083</ele>
        <time>2026-05-07T15:30:24.944Z</time>
      </trkpt>
      <trkpt lat="52.162780" lon="21.822010">
        <ele>168.936312</ele>
        <time>2026-05-07T15:30:33.599Z</time>
      </trkpt>
      <trkpt lat="52.163165" lon="21.820640">
        <ele>169.088977</ele>
        <time>2026-05-07T15:30:45.231Z</time>
      </trkpt>
      <trkpt lat="52.163229" lon="21.820288">
        <ele>169.130682</ele>
        <time>2026-05-07T15:30:48.303Z</time>
      </trkpt>
      <trkpt lat="52.163475" lon="21.817077">
        <ele>169.042396</ele>
        <time>2026-05-07T15:31:12.446Z</time>
      </trkpt>
      <trkpt lat="52.163533" lon="21.815889">
        <ele>168.780814</ele>
        <time>2026-05-07T15:31:19.989Z</time>
      </trkpt>
      <trkpt lat="52.163465" lon="21.814873">
        <ele>167.978725</ele>
        <time>2026-05-07T15:31:26.016Z</time>
      </trkpt>
      <trkpt lat="52.163358" lon="21.814207">
        <ele>167.438417</ele>
        <time>2026-05-07T15:31:29.900Z</time>
      </trkpt>
      <trkpt lat="52.162677" lon="21.811203">
        <ele>164.915329</ele>
        <time>2026-05-07T15:31:47.917Z</time>
      </trkpt>
      <trkpt lat="52.162355" lon="21.809903">
        <ele>164.167336</ele>
        <time>2026-05-07T15:31:56.585Z</time>
      </trkpt>
      <trkpt lat="52.161907" lon="21.808279">
        <ele>163.789307</ele>
        <time>2026-05-07T15:32:09.213Z</time>
      </trkpt>
      <trkpt lat="52.161378" lon="21.805304">
        <ele>162.769399</ele>
        <time>2026-05-07T15:32:30.215Z</time>
      </trkpt>
      <trkpt lat="52.161334" lon="21.804820">
        <ele>162.532080</ele>
        <time>2026-05-07T15:32:32.870Z</time>
      </trkpt>
      <trkpt lat="52.162535" lon="21.804805">
        <ele>160.829125</ele>
        <time>2026-05-07T15:32:43.722Z</time>
      </trkpt>
      <trkpt lat="52.162688" lon="21.804804">
        <ele>160.612184</ele>
        <time>2026-05-07T15:32:45.046Z</time>
      </trkpt>
      <trkpt lat="52.163025" lon="21.804798">
        <ele>160.134321</ele>
        <time>2026-05-07T15:32:48.154Z</time>
      </trkpt>
      <trkpt lat="52.163190" lon="21.804732">
        <ele>160.090643</ele>
        <time>2026-05-07T15:32:49.869Z</time>
      </trkpt>
      <trkpt lat="52.163405" lon="21.804552">
        <ele>160.091341</ele>
        <time>2026-05-07T15:32:52.585Z</time>
      </trkpt>
      <trkpt lat="52.163587" lon="21.804388">
        <ele>160.091943</ele>
        <time>2026-05-07T15:32:55.315Z</time>
      </trkpt>
      <trkpt lat="52.163802" lon="21.804204">
        <ele>160.092644</ele>
        <time>2026-05-07T15:32:58.541Z</time>
      </trkpt>
      <trkpt lat="52.164170" lon="21.804051">
        <ele>160.093742</ele>
        <time>2026-05-07T15:33:02.619Z</time>
      </trkpt>
      <trkpt lat="52.164203" lon="21.804036">
        <ele>160.093841</ele>
        <time>2026-05-07T15:33:02.964Z</time>
      </trkpt>
      <trkpt lat="52.164292" lon="21.804065">
        <ele>160.094103</ele>
        <time>2026-05-07T15:33:03.923Z</time>
      </trkpt>
      <trkpt lat="52.164369" lon="21.804137">
        <ele>160.094360</ele>
        <time>2026-05-07T15:33:04.987Z</time>
      </trkpt>
      <trkpt lat="52.164414" lon="21.804363">
        <ele>160.094781</ele>
        <time>2026-05-07T15:33:06.891Z</time>
      </trkpt>
      <trkpt lat="52.164517" lon="21.804870">
        <ele>160.247576</ele>
        <time>2026-05-07T15:33:12.105Z</time>
      </trkpt>
      <trkpt lat="52.164561" lon="21.805187">
        <ele>160.552235</ele>
        <time>2026-05-07T15:33:15.311Z</time>
      </trkpt>
      <trkpt lat="52.164615" lon="21.805359">
        <ele>160.733353</ele>
        <time>2026-05-07T15:33:17.266Z</time>
      </trkpt>
      <trkpt lat="52.164618" lon="21.805413">
        <ele>160.784178</ele>
        <time>2026-05-07T15:33:17.785Z</time>
      </trkpt>
      <trkpt lat="52.164684" lon="21.805482">
        <ele>160.903994</ele>
        <time>2026-05-07T15:33:19.057Z</time>
      </trkpt>
      <trkpt lat="52.164737" lon="21.805426">
        <ele>161.000510</ele>
        <time>2026-05-07T15:33:20.117Z</time>
      </trkpt>
      <trkpt lat="52.164743" lon="21.805357">
        <ele>161.065835</ele>
        <time>2026-05-07T15:33:20.831Z</time>
      </trkpt>
      <trkpt lat="52.164862" lon="21.805317">
        <ele>161.251511</ele>
        <time>2026-05-07T15:33:22.804Z</time>
      </trkpt>
      <trkpt lat="52.165416" lon="21.805069">
        <ele>162.129451</ele>
        <time>2026-05-07T15:33:32.911Z</time>
      </trkpt>
      <trkpt lat="52.166183" lon="21.804699">
        <ele>163.209983</ele>
        <time>2026-05-07T15:33:47.253Z</time>
      </trkpt>
      <trkpt lat="52.166402" lon="21.804677">
        <ele>163.451637</ele>
        <time>2026-05-07T15:33:50.981Z</time>
      </trkpt>
      <trkpt lat="52.165970" lon="21.803631">
        <ele>164.303506</ele>
        <time>2026-05-07T15:34:02.180Z</time>
      </trkpt>
      <trkpt lat="52.165880" lon="21.803399">
        <ele>164.488948</ele>
        <time>2026-05-07T15:34:04.530Z</time>
      </trkpt>
      <trkpt lat="52.165652" lon="21.802810">
        <ele>165.104598</ele>
        <time>2026-05-07T15:34:10.235Z</time>
      </trkpt>
      <trkpt lat="52.165586" lon="21.802578">
        <ele>165.463869</ele>
        <time>2026-05-07T15:34:12.486Z</time>
      </trkpt>
      <trkpt lat="52.165775" lon="21.802602">
        <ele>165.898051</ele>
        <time>2026-05-07T15:34:15.387Z</time>
      </trkpt>
      <trkpt lat="52.165956" lon="21.802635">
        <ele>166.315184</ele>
        <time>2026-05-07T15:34:18.263Z</time>
      </trkpt>
      <trkpt lat="52.166933" lon="21.802816">
        <ele>168.567232</ele>
        <time>2026-05-07T15:34:38.461Z</time>
      </trkpt>
      <trkpt lat="52.167156" lon="21.802854">
        <ele>169.182590</ele>
        <time>2026-05-07T15:34:44.018Z</time>
      </trkpt>
      <trkpt lat="52.168819" lon="21.803118">
        <ele>175.869204</ele>
        <time>2026-05-07T15:35:27.773Z</time>
      </trkpt>
      <trkpt lat="52.168857" lon="21.803331">
        <ele>176.225167</ele>
        <time>2026-05-07T15:35:30.775Z</time>
      </trkpt>
      <trkpt lat="52.169156" lon="21.803183">
        <ele>176.606498</ele>
        <time>2026-05-07T15:35:37.066Z</time>
      </trkpt>
      <trkpt lat="52.169658" lon="21.803269">
        <ele>177.222488</ele>
        <time>2026-05-07T15:35:45.256Z</time>
      </trkpt>
      <trkpt lat="52.170560" lon="21.803410">
        <ele>178.328294</ele>
        <time>2026-05-07T15:35:56.195Z</time>
      </trkpt>
      <trkpt lat="52.172945" lon="21.803781">
        <ele>178.259604</ele>
        <time>2026-05-07T15:36:23.476Z</time>
      </trkpt>
      <trkpt lat="52.174144" lon="21.803971">
        <ele>178.552591</ele>
        <time>2026-05-07T15:36:39.688Z</time>
      </trkpt>
      <trkpt lat="52.175893" lon="21.804267">
        <ele>179.191189</ele>
        <time>2026-05-07T15:37:02.132Z</time>
      </trkpt>
      <trkpt lat="52.176656" lon="21.804401">
        <ele>179.824972</ele>
        <time>2026-05-07T15:37:12.877Z</time>
      </trkpt>
      <trkpt lat="52.177022" lon="21.804463">
        <ele>180.139354</ele>
        <time>2026-05-07T15:37:18.448Z</time>
      </trkpt>
      <trkpt lat="52.177211" lon="21.804494">
        <ele>180.301645</ele>
        <time>2026-05-07T15:37:21.366Z</time>
      </trkpt>
      <trkpt lat="52.178915" lon="21.804763">
        <ele>181.736907</ele>
        <time>2026-05-07T15:37:47.349Z</time>
      </trkpt>
      <trkpt lat="52.179400" lon="21.804842">
        <ele>182.142159</ele>
        <time>2026-05-07T15:37:54.267Z</time>
      </trkpt>
      <trkpt lat="52.180084" lon="21.804949">
        <ele>182.035965</ele>
        <time>2026-05-07T15:38:03.002Z</time>
      </trkpt>
      <trkpt lat="52.181581" lon="21.805147">
        <ele>181.233005</ele>
        <time>2026-05-07T15:38:18.486Z</time>
      </trkpt>
      <trkpt lat="52.182479" lon="21.805250">
        <ele>180.033421</ele>
        <time>2026-05-07T15:38:26.814Z</time>
      </trkpt>
      <trkpt lat="52.184162" lon="21.805562">
        <ele>178.028073</ele>
        <time>2026-05-07T15:38:42.239Z</time>
      </trkpt>
      <trkpt lat="52.184516" lon="21.805627">
        <ele>177.637296</ele>
        <time>2026-05-07T15:38:45.830Z</time>
      </trkpt>
      <trkpt lat="52.184645" lon="21.805650">
        <ele>177.494945</ele>
        <time>2026-05-07T15:38:47.207Z</time>
      </trkpt>
      <trkpt lat="52.186160" lon="21.805917">
        <ele>176.846864</ele>
        <time>2026-05-07T15:39:05.355Z</time>
      </trkpt>
      <trkpt lat="52.188365" lon="21.806263">
        <ele>175.159378</ele>
        <time>2026-05-07T15:39:27.389Z</time>
      </trkpt>
      <trkpt lat="52.188873" lon="21.806339">
        <ele>174.756833</ele>
        <time>2026-05-07T15:39:32.322Z</time>
      </trkpt>
      <trkpt lat="52.191179" lon="21.806695">
        <ele>173.555706</ele>
        <time>2026-05-07T15:39:56.097Z</time>
      </trkpt>
      <trkpt lat="52.193351" lon="21.807050">
        <ele>173.757094</ele>
        <time>2026-05-07T15:40:24.713Z</time>
      </trkpt>
      <trkpt lat="52.194413" lon="21.807272">
        <ele>173.916638</ele>
        <time>2026-05-07T15:40:37.281Z</time>
      </trkpt>
      <trkpt lat="52.194527" lon="21.807331">
        <ele>173.923586</ele>
        <time>2026-05-07T15:40:38.754Z</time>
      </trkpt>
      <trkpt lat="52.194696" lon="21.807542">
        <ele>173.935948</ele>
        <time>2026-05-07T15:40:41.267Z</time>
      </trkpt>
      <trkpt lat="52.194843" lon="21.807899">
        <ele>173.951261</ele>
        <time>2026-05-07T15:40:44.551Z</time>
      </trkpt>
      <trkpt lat="52.195064" lon="21.808748">
        <ele>173.984104</ele>
        <time>2026-05-07T15:40:51.858Z</time>
      </trkpt>
      <trkpt lat="52.195343" lon="21.810328">
        <ele>173.577188</ele>
        <time>2026-05-07T15:41:03.255Z</time>
      </trkpt>
      <trkpt lat="52.195387" lon="21.810459">
        <ele>173.537763</ele>
        <time>2026-05-07T15:41:04.225Z</time>
      </trkpt>
      <trkpt lat="52.195471" lon="21.810547">
        <ele>173.494779</ele>
        <time>2026-05-07T15:41:05.248Z</time>
      </trkpt>
      <trkpt lat="52.195542" lon="21.810542">
        <ele>173.464179</ele>
        <time>2026-05-07T15:41:06.004Z</time>
      </trkpt>
      <trkpt lat="52.195644" lon="21.810445">
        <ele>173.413343</ele>
        <time>2026-05-07T15:41:07.236Z</time>
      </trkpt>
      <trkpt lat="52.195895" lon="21.809927">
        <ele>173.239068</ele>
        <time>2026-05-07T15:41:11.370Z</time>
      </trkpt>
      <trkpt lat="52.195960" lon="21.809724">
        <ele>173.060687</ele>
        <time>2026-05-07T15:41:12.768Z</time>
      </trkpt>
      <trkpt lat="52.196147" lon="21.808845">
        <ele>171.969295</ele>
        <time>2026-05-07T15:41:18.052Z</time>
      </trkpt>
      <trkpt lat="52.196265" lon="21.808525">
        <ele>171.531252</ele>
        <time>2026-05-07T15:41:20.073Z</time>
      </trkpt>
      <trkpt lat="52.196451" lon="21.808253">
        <ele>171.053252</ele>
        <time>2026-05-07T15:41:22.221Z</time>
      </trkpt>
      <trkpt lat="52.196553" lon="21.808164">
        <ele>170.831897</ele>
        <time>2026-05-07T15:41:23.194Z</time>
      </trkpt>
      <trkpt lat="52.196732" lon="21.808077">
        <ele>170.474477</ele>
        <time>2026-05-07T15:41:24.749Z</time>
      </trkpt>
      <trkpt lat="52.198272" lon="21.807926">
        <ele>167.774250</ele>
        <time>2026-05-07T15:41:37.774Z</time>
      </trkpt>
      <trkpt lat="52.198510" lon="21.807894">
        <ele>167.368491</ele>
        <time>2026-05-07T15:41:40.151Z</time>
      </trkpt>
      <trkpt lat="52.199316" lon="21.807785">
        <ele>167.053673</ele>
        <time>2026-05-07T15:41:49.784Z</time>
      </trkpt>
      <trkpt lat="52.200123" lon="21.807676">
        <ele>167.700773</ele>
        <time>2026-05-07T15:42:01.285Z</time>
      </trkpt>
      <trkpt lat="52.200655" lon="21.807662">
        <ele>168.125964</ele>
        <time>2026-05-07T15:42:09.672Z</time>
      </trkpt>
      <trkpt lat="52.204321" lon="21.808827">
        <ele>176.386492</ele>
        <time>2026-05-07T15:43:22.598Z</time>
      </trkpt>
      <trkpt lat="52.204441" lon="21.808922">
        <ele>176.551091</ele>
        <time>2026-05-07T15:43:24.680Z</time>
      </trkpt>
      <trkpt lat="52.204533" lon="21.809092">
        <ele>176.722615</ele>
        <time>2026-05-07T15:43:26.828Z</time>
      </trkpt>
      <trkpt lat="52.205050" lon="21.810235">
        <ele>177.797012</ele>
        <time>2026-05-07T15:43:40.286Z</time>
      </trkpt>
      <trkpt lat="52.205819" lon="21.809358">
        <ele>178.475172</ele>
        <time>2026-05-07T15:43:54.052Z</time>
      </trkpt>
      <trkpt lat="52.206682" lon="21.808377">
        <ele>178.470769</ele>
        <time>2026-05-07T15:44:07.568Z</time>
      </trkpt>
      <trkpt lat="52.207038" lon="21.807974">
        <ele>178.327540</ele>
        <time>2026-05-07T15:44:11.580Z</time>
      </trkpt>
      <trkpt lat="52.207190" lon="21.807815">
        <ele>177.980543</ele>
        <time>2026-05-07T15:44:13.263Z</time>
      </trkpt>
      <trkpt lat="52.207491" lon="21.807501">
        <ele>177.293945</ele>
        <time>2026-05-07T15:44:16.439Z</time>
      </trkpt>
      <trkpt lat="52.207843" lon="21.807150">
        <ele>176.501130</ele>
        <time>2026-05-07T15:44:19.928Z</time>
      </trkpt>
      <trkpt lat="52.207927" lon="21.807442">
        <ele>176.121222</ele>
        <time>2026-05-07T15:44:21.591Z</time>
      </trkpt>
      <trkpt lat="52.207843" lon="21.807150">
        <ele>175.741315</ele>
        <time>2026-05-07T15:44:23.256Z</time>
      </trkpt>
      <trkpt lat="52.208371" lon="21.806894">
        <ele>174.928843</ele>
        <time>2026-05-07T15:44:28.115Z</time>
      </trkpt>
      <trkpt lat="52.208426" lon="21.806866">
        <ele>174.900768</ele>
        <time>2026-05-07T15:44:28.658Z</time>
      </trkpt>
      <trkpt lat="52.208472" lon="21.806835">
        <ele>174.876517</ele>
        <time>2026-05-07T15:44:29.110Z</time>
      </trkpt>
      <trkpt lat="52.208849" lon="21.806280">
        <ele>174.629103</ele>
        <time>2026-05-07T15:44:33.985Z</time>
      </trkpt>
      <trkpt lat="52.208942" lon="21.806127">
        <ele>174.564752</ele>
        <time>2026-05-07T15:44:35.326Z</time>
      </trkpt>
      <trkpt lat="52.210221" lon="21.804021">
        <ele>174.426684</ele>
        <time>2026-05-07T15:44:59.705Z</time>
      </trkpt>
      <trkpt lat="52.210314" lon="21.803863">
        <ele>174.468331</ele>
        <time>2026-05-07T15:45:01.524Z</time>
      </trkpt>
      <trkpt lat="52.210427" lon="21.803731">
        <ele>174.511443</ele>
        <time>2026-05-07T15:45:03.359Z</time>
      </trkpt>
      <trkpt lat="52.212467" lon="21.802198">
        <ele>174.892869</ele>
        <time>2026-05-07T15:45:30.067Z</time>
      </trkpt>
      <trkpt lat="52.220199" lon="21.796581">
        <ele>180.507560</ele>
        <time>2026-05-07T15:47:29.152Z</time>
      </trkpt>
      <trkpt lat="52.223795" lon="21.793946">
        <ele>182.432879</ele>
        <time>2026-05-07T15:48:21.985Z</time>
      </trkpt>
      <trkpt lat="52.223937" lon="21.793850">
        <ele>182.499955</ele>
        <time>2026-05-07T15:48:23.899Z</time>
      </trkpt>
      <trkpt lat="52.227852" lon="21.791011">
        <ele>184.012561</ele>
        <time>2026-05-07T15:49:19.755Z</time>
      </trkpt>
      <trkpt lat="52.228299" lon="21.790788">
        <ele>184.113557</ele>
        <time>2026-05-07T15:49:25.727Z</time>
      </trkpt>
      <trkpt lat="52.230964" lon="21.789960">
        <ele>184.696411</ele>
        <time>2026-05-07T15:49:58.792Z</time>
      </trkpt>
      <trkpt lat="52.233694" lon="21.789106">
        <ele>187.067825</ele>
        <time>2026-05-07T15:50:39.330Z</time>
      </trkpt>
      <trkpt lat="52.234814" lon="21.788723">
        <ele>187.916095</ele>
        <time>2026-05-07T15:50:57.759Z</time>
      </trkpt>
      <trkpt lat="52.235009" lon="21.788653">
        <ele>187.969570</ele>
        <time>2026-05-07T15:51:00.739Z</time>
      </trkpt>
      <trkpt lat="52.238646" lon="21.787327">
        <ele>187.398373</ele>
        <time>2026-05-07T15:51:42.154Z</time>
      </trkpt>
      <trkpt lat="52.239109" lon="21.787133">
        <ele>187.144135</ele>
        <time>2026-05-07T15:51:47.008Z</time>
      </trkpt>
      <trkpt lat="52.239520" lon="21.786919">
        <ele>186.914689</ele>
        <time>2026-05-07T15:51:51.395Z</time>
      </trkpt>
      <trkpt lat="52.240253" lon="21.786362">
        <ele>186.718689</ele>
        <time>2026-05-07T15:51:59.797Z</time>
      </trkpt>
      <trkpt lat="52.241648" lon="21.784987">
        <ele>186.833181</ele>
        <time>2026-05-07T15:52:19.600Z</time>
      </trkpt>
      <trkpt lat="52.242224" lon="21.784415">
        <ele>187.264357</ele>
        <time>2026-05-07T15:52:29.804Z</time>
      </trkpt>
      <trkpt lat="52.242545" lon="21.784115">
        <ele>187.500911</ele>
        <time>2026-05-07T15:52:35.466Z</time>
      </trkpt>
      <trkpt lat="52.242952" lon="21.783897">
        <ele>187.677561</ele>
        <time>2026-05-07T15:52:41.759Z</time>
      </trkpt>
      <trkpt lat="52.244314" lon="21.783660">
        <ele>187.795205</ele>
        <time>2026-05-07T15:52:57.509Z</time>
      </trkpt>
      <trkpt lat="52.246964" lon="21.783196">
        <ele>187.877705</ele>
        <time>2026-05-07T15:53:28.922Z</time>
      </trkpt>
      <trkpt lat="52.248298" lon="21.782861">
        <ele>188.013666</ele>
        <time>2026-05-07T15:53:45.905Z</time>
      </trkpt>
      <trkpt lat="52.250766" lon="21.782186">
        <ele>188.515163</ele>
        <time>2026-05-07T15:54:15.049Z</time>
      </trkpt>
      <trkpt lat="52.251078" lon="21.782007">
        <ele>188.722964</ele>
        <time>2026-05-07T15:54:19.865Z</time>
      </trkpt>
      <trkpt lat="52.251989" lon="21.781349">
        <ele>189.858704</ele>
        <time>2026-05-07T15:54:36.284Z</time>
      </trkpt>
      <trkpt lat="52.252178" lon="21.781272">
        <ele>190.231735</ele>
        <time>2026-05-07T15:54:39.745Z</time>
      </trkpt>
      <trkpt lat="52.252769" lon="21.781126">
        <ele>191.376397</ele>
        <time>2026-05-07T15:54:50.750Z</time>
      </trkpt>
      <trkpt lat="52.252889" lon="21.781062">
        <ele>191.618140</ele>
        <time>2026-05-07T15:54:53.156Z</time>
      </trkpt>
      <trkpt lat="52.253407" lon="21.780616">
        <ele>192.708067</ele>
        <time>2026-05-07T15:55:04.189Z</time>
      </trkpt>
      <trkpt lat="52.253588" lon="21.780394">
        <ele>193.071698</ele>
        <time>2026-05-07T15:55:08.455Z</time>
      </trkpt>
      <trkpt lat="52.253686" lon="21.780521">
        <ele>193.272668</ele>
        <time>2026-05-07T15:55:10.812Z</time>
      </trkpt>
      <trkpt lat="52.254015" lon="21.780563">
        <ele>193.802837</ele>
        <time>2026-05-07T15:55:16.962Z</time>
      </trkpt>
      <trkpt lat="52.263606" lon="21.782829">
        <ele>209.325549</ele>
        <time>2026-05-07T15:58:00.057Z</time>
      </trkpt>
      <trkpt lat="52.266848" lon="21.782620">
        <ele>213.421752</ele>
        <time>2026-05-07T15:58:55.608Z</time>
      </trkpt>
      <trkpt lat="52.271534" lon="21.782282">
        <ele>208.716571</ele>
        <time>2026-05-07T15:59:40.757Z</time>
      </trkpt>
      <trkpt lat="52.273164" lon="21.782065">
        <ele>204.576808</ele>
        <time>2026-05-07T15:59:54.216Z</time>
      </trkpt>
      <trkpt lat="52.274442" lon="21.781806">
        <ele>200.778538</ele>
        <time>2026-05-07T16:00:04.725Z</time>
      </trkpt>
      <trkpt lat="52.277054" lon="21.781376">
        <ele>193.878439</ele>
        <time>2026-05-07T16:00:26.924Z</time>
      </trkpt>
      <trkpt lat="52.278819" lon="21.781063">
        <ele>189.119461</ele>
        <time>2026-05-07T16:00:41.601Z</time>
      </trkpt>
      <trkpt lat="52.279130" lon="21.781023">
        <ele>188.303627</ele>
        <time>2026-05-07T16:00:44.223Z</time>
      </trkpt>
      <trkpt lat="52.279473" lon="21.781045">
        <ele>187.405931</ele>
        <time>2026-05-07T16:00:47.119Z</time>
      </trkpt>
      <trkpt lat="52.281127" lon="21.781503">
        <ele>183.757327</ele>
        <time>2026-05-07T16:01:01.356Z</time>
      </trkpt>
      <trkpt lat="52.281812" lon="21.781657">
        <ele>182.419247</ele>
        <time>2026-05-07T16:01:07.822Z</time>
      </trkpt>
      <trkpt lat="52.282013" lon="21.781721">
        <ele>182.263808</ele>
        <time>2026-05-07T16:01:09.875Z</time>
      </trkpt>
      <trkpt lat="52.282364" lon="21.781904">
        <ele>182.033963</ele>
        <time>2026-05-07T16:01:13.739Z</time>
      </trkpt>
      <trkpt lat="52.282468" lon="21.781981">
        <ele>181.962736</ele>
        <time>2026-05-07T16:01:14.983Z</time>
      </trkpt>
      <trkpt lat="52.284224" lon="21.783066">
        <ele>180.825289</ele>
        <time>2026-05-07T16:01:34.893Z</time>
      </trkpt>
      <trkpt lat="52.287781" lon="21.785265">
        <ele>178.385787</ele>
        <time>2026-05-07T16:02:14.402Z</time>
      </trkpt>
      <trkpt lat="52.288458" lon="21.785647">
        <ele>177.791210</ele>
        <time>2026-05-07T16:02:21.629Z</time>
      </trkpt>
      <trkpt lat="52.289441" lon="21.786197">
        <ele>176.094730</ele>
        <time>2026-05-07T16:02:31.124Z</time>
      </trkpt>
      <trkpt lat="52.289644" lon="21.786302">
        <ele>175.722196</ele>
        <time>2026-05-07T16:02:32.954Z</time>
      </trkpt>
      <trkpt lat="52.293943" lon="21.788781">
        <ele>167.010650</ele>
        <time>2026-05-07T16:03:12.933Z</time>
      </trkpt>
      <trkpt lat="52.294196" lon="21.788803">
        <ele>166.723041</ele>
        <time>2026-05-07T16:03:15.287Z</time>
      </trkpt>
      <trkpt lat="52.294434" lon="21.788729">
        <ele>166.448024</ele>
        <time>2026-05-07T16:03:17.587Z</time>
      </trkpt>
      <trkpt lat="52.296998" lon="21.787200">
        <ele>164.454952</ele>
        <time>2026-05-07T16:03:45.467Z</time>
      </trkpt>
      <trkpt lat="52.296979" lon="21.787831">
        <ele>164.568649</ele>
        <time>2026-05-07T16:03:50.759Z</time>
      </trkpt>
      <trkpt lat="52.296839" lon="21.789542">
        <ele>165.130070</ele>
        <time>2026-05-07T16:04:06.504Z</time>
      </trkpt>
      <trkpt lat="52.299284" lon="21.790281">
        <ele>165.758236</ele>
        <time>2026-05-07T16:04:48.543Z</time>
      </trkpt>
      <trkpt lat="52.300974" lon="21.790811">
        <ele>165.453915</ele>
        <time>2026-05-07T16:05:15.574Z</time>
      </trkpt>
      <trkpt lat="52.301766" lon="21.791001">
        <ele>165.022936</ele>
        <time>2026-05-07T16:05:27.105Z</time>
      </trkpt>
      <trkpt lat="52.302171" lon="21.791033">
        <ele>164.804629</ele>
        <time>2026-05-07T16:05:32.891Z</time>
      </trkpt>
      <trkpt lat="52.302357" lon="21.790998">
        <ele>164.703825</ele>
        <time>2026-05-07T16:05:35.601Z</time>
      </trkpt>
      <trkpt lat="52.302686" lon="21.790865">
        <ele>164.566614</ele>
        <time>2026-05-07T16:05:40.574Z</time>
      </trkpt>
      <trkpt lat="52.306223" lon="21.788858">
        <ele>164.327745</ele>
        <time>2026-05-07T16:06:41.482Z</time>
      </trkpt>
      <trkpt lat="52.306579" lon="21.788766">
        <ele>164.153222</ele>
        <time>2026-05-07T16:06:46.889Z</time>
      </trkpt>
      <trkpt lat="52.307510" lon="21.788737">
        <ele>163.702326</ele>
        <time>2026-05-07T16:07:00.278Z</time>
      </trkpt>
      <trkpt lat="52.307792" lon="21.788655">
        <ele>163.564111</ele>
        <time>2026-05-07T16:07:04.396Z</time>
      </trkpt>
      <trkpt lat="52.314985" lon="21.784993">
        <ele>160.474067</ele>
        <time>2026-05-07T16:08:57.178Z</time>
      </trkpt>
      <trkpt lat="52.315127" lon="21.785039">
        <ele>160.531405</ele>
        <time>2026-05-07T16:08:59.571Z</time>
      </trkpt>
      <trkpt lat="52.315197" lon="21.785214">
        <ele>160.582045</ele>
        <time>2026-05-07T16:09:01.725Z</time>
      </trkpt>
      <trkpt lat="52.315208" lon="21.785380">
        <ele>160.622476</ele>
        <time>2026-05-07T16:09:03.454Z</time>
      </trkpt>
      <trkpt lat="52.315134" lon="21.786916">
        <ele>160.995558</ele>
        <time>2026-05-07T16:09:21.001Z</time>
      </trkpt>
      <trkpt lat="52.315068" lon="21.788036">
        <ele>161.602322</ele>
        <time>2026-05-07T16:09:33.916Z</time>
      </trkpt>
      <trkpt lat="52.315075" lon="21.788733">
        <ele>162.022215</ele>
        <time>2026-05-07T16:09:42.677Z</time>
      </trkpt>
      <trkpt lat="52.315262" lon="21.789651">
        <ele>162.605060</ele>
        <time>2026-05-07T16:09:54.860Z</time>
      </trkpt>
      <trkpt lat="52.316697" lon="21.793923">
        <ele>163.342169</ele>
        <time>2026-05-07T16:10:45.663Z</time>
      </trkpt>
      <trkpt lat="52.318025" lon="21.798351">
        <ele>162.521317</ele>
        <time>2026-05-07T16:11:30.110Z</time>
      </trkpt>
      <trkpt lat="52.318202" lon="21.798984">
        <ele>162.679269</ele>
        <time>2026-05-07T16:11:37.615Z</time>
      </trkpt>
      <trkpt lat="52.318378" lon="21.799423">
        <ele>162.798397</ele>
        <time>2026-05-07T16:11:43.492Z</time>
      </trkpt>
      <trkpt lat="52.318095" lon="21.800288">
        <ele>163.021023</ele>
        <time>2026-05-07T16:11:52.341Z</time>
      </trkpt>
      <trkpt lat="52.317452" lon="21.802094">
        <ele>163.416433</ele>
        <time>2026-05-07T16:12:10.630Z</time>
      </trkpt>
      <trkpt lat="52.317144" lon="21.803011">
        <ele>163.505112</ele>
        <time>2026-05-07T16:12:17.956Z</time>
      </trkpt>
      <trkpt lat="52.316603" lon="21.804640">
        <ele>161.485915</ele>
        <time>2026-05-07T16:12:28.238Z</time>
      </trkpt>
      <trkpt lat="52.315897" lon="21.806728">
        <ele>159.086495</ele>
        <time>2026-05-07T16:12:40.389Z</time>
      </trkpt>
      <trkpt lat="52.314984" lon="21.809166">
        <ele>157.680637</ele>
        <time>2026-05-07T16:12:58.852Z</time>
      </trkpt>
      <trkpt lat="52.314615" lon="21.809883">
        <ele>157.730232</ele>
        <time>2026-05-07T16:13:06.583Z</time>
      </trkpt>
      <trkpt lat="52.314172" lon="21.810626">
        <ele>157.867606</ele>
        <time>2026-05-07T16:13:15.438Z</time>
      </trkpt>
      <trkpt lat="52.314017" lon="21.810929">
        <ele>157.986856</ele>
        <time>2026-05-07T16:13:18.838Z</time>
      </trkpt>
      <trkpt lat="52.313895" lon="21.811283">
        <ele>158.109514</ele>
        <time>2026-05-07T16:13:22.328Z</time>
      </trkpt>
      <trkpt lat="52.313390" lon="21.813441">
        <ele>158.739115</ele>
        <time>2026-05-07T16:13:41.130Z</time>
      </trkpt>
      <trkpt lat="52.312878" lon="21.815626">
        <ele>159.128677</ele>
        <time>2026-05-07T16:13:59.306Z</time>
      </trkpt>
      <trkpt lat="52.312285" lon="21.818216">
        <ele>158.929946</ele>
        <time>2026-05-07T16:14:19.353Z</time>
      </trkpt>
      <trkpt lat="52.311407" lon="21.822229">
        <ele>156.706509</ele>
        <time>2026-05-07T16:14:45.068Z</time>
      </trkpt>
      <trkpt lat="52.311100" lon="21.823615">
        <ele>155.752328</ele>
        <time>2026-05-07T16:14:53.686Z</time>
      </trkpt>
      <trkpt lat="52.311050" lon="21.824105">
        <ele>155.437885</ele>
        <time>2026-05-07T16:14:56.604Z</time>
      </trkpt>
      <trkpt lat="52.311052" lon="21.824580">
        <ele>155.177360</ele>
        <time>2026-05-07T16:14:59.437Z</time>
      </trkpt>
      <trkpt lat="52.311220" lon="21.828245">
        <ele>153.544793</ele>
        <time>2026-05-07T16:15:21.947Z</time>
      </trkpt>
      <trkpt lat="52.311276" lon="21.829698">
        <ele>153.182048</ele>
        <time>2026-05-07T16:15:31.593Z</time>
      </trkpt>
      <trkpt lat="52.311671" lon="21.837604">
        <ele>155.833281</ele>
        <time>2026-05-07T16:16:38.387Z</time>
      </trkpt>
      <trkpt lat="52.311849" lon="21.842439">
        <ele>157.620907</ele>
        <time>2026-05-07T16:17:20.202Z</time>
      </trkpt>
      <trkpt lat="52.311885" lon="21.844037">
        <ele>157.958326</ele>
        <time>2026-05-07T16:17:32.545Z</time>
      </trkpt>
      <trkpt lat="52.311849" lon="21.847642">
        <ele>157.788352</ele>
        <time>2026-05-07T16:17:58.897Z</time>
      </trkpt>
      <trkpt lat="52.309911" lon="21.846634">
        <ele>155.540798</ele>
        <time>2026-05-07T16:18:18.210Z</time>
      </trkpt>
      <trkpt lat="52.308286" lon="21.845812">
        <ele>153.306621</ele>
        <time>2026-05-07T16:18:33.944Z</time>
      </trkpt>
      <trkpt lat="52.308154" lon="21.845833">
        <ele>153.179131</ele>
        <time>2026-05-07T16:18:35.161Z</time>
      </trkpt>
      <trkpt lat="52.308034" lon="21.845970">
        <ele>153.038451</ele>
        <time>2026-05-07T16:18:36.526Z</time>
      </trkpt>
      <trkpt lat="52.307830" lon="21.846454">
        <ele>152.692934</ele>
        <time>2026-05-07T16:18:40.008Z</time>
      </trkpt>
      <trkpt lat="52.307653" lon="21.846996">
        <ele>152.331777</ele>
        <time>2026-05-07T16:18:43.761Z</time>
      </trkpt>
      <trkpt lat="52.307350" lon="21.848058">
        <ele>151.668652</ele>
        <time>2026-05-07T16:18:51.284Z</time>
      </trkpt>
      <trkpt lat="52.307160" lon="21.848828">
        <ele>151.270963</ele>
        <time>2026-05-07T16:18:56.828Z</time>
      </trkpt>
      <trkpt lat="52.307102" lon="21.849151">
        <ele>151.109730</ele>
        <time>2026-05-07T16:18:59.022Z</time>
      </trkpt>
      <trkpt lat="52.306522" lon="21.853390">
        <ele>148.788727</ele>
        <time>2026-05-07T16:19:24.748Z</time>
      </trkpt>
      <trkpt lat="52.306417" lon="21.854564">
        <ele>148.858105</ele>
        <time>2026-05-07T16:19:33.122Z</time>
      </trkpt>
      <trkpt lat="52.306394" lon="21.857382">
        <ele>149.897664</ele>
        <time>2026-05-07T16:19:56.546Z</time>
      </trkpt>
      <trkpt lat="52.306355" lon="21.857692">
        <ele>150.162627</ele>
        <time>2026-05-07T16:19:59.593Z</time>
      </trkpt>
      <trkpt lat="52.306005" lon="21.857633">
        <ele>150.644386</ele>
        <time>2026-05-07T16:20:05.356Z</time>
      </trkpt>
      <trkpt lat="52.304912" lon="21.857721">
        <ele>152.339908</ele>
        <time>2026-05-07T16:20:26.057Z</time>
      </trkpt>
      <trkpt lat="52.304393" lon="21.857779">
        <ele>153.303816</ele>
        <time>2026-05-07T16:20:34.947Z</time>
      </trkpt>
      <trkpt lat="52.303637" lon="21.857857">
        <ele>154.707409</ele>
        <time>2026-05-07T16:20:48.647Z</time>
      </trkpt>
      <trkpt lat="52.303179" lon="21.857884">
        <ele>155.550423</ele>
        <time>2026-05-07T16:20:55.803Z</time>
      </trkpt>
      <trkpt lat="52.302691" lon="21.857811">
        <ele>156.449652</ele>
        <time>2026-05-07T16:21:04.075Z</time>
      </trkpt>
      <trkpt lat="52.302584" lon="21.858030">
        <ele>156.764200</ele>
        <time>2026-05-07T16:21:07.261Z</time>
      </trkpt>
      <trkpt lat="52.300367" lon="21.860743">
        <ele>162.341120</ele>
        <time>2026-05-07T16:21:59.173Z</time>
      </trkpt>
      <trkpt lat="52.298724" lon="21.862681">
        <ele>165.530048</ele>
        <time>2026-05-07T16:22:33.707Z</time>
      </trkpt>
      <trkpt lat="52.297896" lon="21.863690">
        <ele>166.588405</ele>
        <time>2026-05-07T16:22:50.392Z</time>
      </trkpt>
      <trkpt lat="52.296315" lon="21.866152">
        <ele>166.729998</ele>
        <time>2026-05-07T16:23:15.484Z</time>
      </trkpt>
      <trkpt lat="52.295754" lon="21.866875">
        <ele>166.324897</ele>
        <time>2026-05-07T16:23:22.611Z</time>
      </trkpt>
      <trkpt lat="52.294924" lon="21.868047">
        <ele>165.727606</ele>
        <time>2026-05-07T16:23:33.800Z</time>
      </trkpt>
      <trkpt lat="52.293326" lon="21.870636">
        <ele>166.223382</ele>
        <time>2026-05-07T16:24:02.327Z</time>
      </trkpt>
      <trkpt lat="52.292531" lon="21.872319">
        <ele>167.020422</ele>
        <time>2026-05-07T16:24:21.600Z</time>
      </trkpt>
      <trkpt lat="52.292383" lon="21.872588">
        <ele>166.990611</ele>
        <time>2026-05-07T16:24:24.488Z</time>
      </trkpt>
      <trkpt lat="52.292101" lon="21.872977">
        <ele>166.926891</ele>
        <time>2026-05-07T16:24:28.842Z</time>
      </trkpt>
      <trkpt lat="52.290773" lon="21.874193">
        <ele>166.698261</ele>
        <time>2026-05-07T16:24:44.805Z</time>
      </trkpt>
      <trkpt lat="52.289093" lon="21.875731">
        <ele>166.664868</ele>
        <time>2026-05-07T16:25:08.183Z</time>
      </trkpt>
      <trkpt lat="52.288853" lon="21.876114">
        <ele>166.708492</ele>
        <time>2026-05-07T16:25:12.559Z</time>
      </trkpt>
      <trkpt lat="52.288241" lon="21.877630">
        <ele>166.806426</ele>
        <time>2026-05-07T16:25:26.499Z</time>
      </trkpt>
      <trkpt lat="52.285845" lon="21.881248">
        <ele>164.665665</ele>
        <time>2026-05-07T16:26:00.561Z</time>
      </trkpt>
      <trkpt lat="52.285046" lon="21.882437">
        <ele>163.034514</ele>
        <time>2026-05-07T16:26:10.085Z</time>
      </trkpt>
      <trkpt lat="52.284783" lon="21.882969">
        <ele>162.318168</ele>
        <time>2026-05-07T16:26:13.707Z</time>
      </trkpt>
      <trkpt lat="52.284516" lon="21.883691">
        <ele>161.434598</ele>
        <time>2026-05-07T16:26:18.333Z</time>
      </trkpt>
      <trkpt lat="52.283456" lon="21.887182">
        <ele>159.230693</ele>
        <time>2026-05-07T16:26:42.350Z</time>
      </trkpt>
      <trkpt lat="52.283164" lon="21.887850">
        <ele>158.836330</ele>
        <time>2026-05-07T16:26:47.407Z</time>
      </trkpt>
      <trkpt lat="52.282443" lon="21.889144">
        <ele>157.838470</ele>
        <time>2026-05-07T16:26:58.338Z</time>
      </trkpt>
      <trkpt lat="52.281606" lon="21.890557">
        <ele>156.299844</ele>
        <time>2026-05-07T16:27:09.625Z</time>
      </trkpt>
      <trkpt lat="52.281367" lon="21.890974">
        <ele>155.844488</ele>
        <time>2026-05-07T16:27:12.801Z</time>
      </trkpt>
      <trkpt lat="52.280794" lon="21.891710">
        <ele>154.828796</ele>
        <time>2026-05-07T16:27:19.254Z</time>
      </trkpt>
      <trkpt lat="52.275500" lon="21.898505">
        <ele>145.925005</ele>
        <time>2026-05-07T16:28:22.474Z</time>
      </trkpt>
      <trkpt lat="52.272905" lon="21.902738">
        <ele>144.536977</ele>
        <time>2026-05-07T16:29:02.269Z</time>
      </trkpt>
      <trkpt lat="52.272494" lon="21.903233">
        <ele>144.699254</ele>
        <time>2026-05-07T16:29:08.836Z</time>
      </trkpt>
      <trkpt lat="52.272453" lon="21.903252">
        <ele>144.712800</ele>
        <time>2026-05-07T16:29:09.400Z</time>
      </trkpt>
      <trkpt lat="52.272182" lon="21.903342">
        <ele>144.800696</ele>
        <time>2026-05-07T16:29:13.128Z</time>
      </trkpt>
      <trkpt lat="52.271871" lon="21.903331">
        <ele>144.899569</ele>
        <time>2026-05-07T16:29:17.452Z</time>
      </trkpt>
      <trkpt lat="52.270958" lon="21.903114">
        <ele>145.247838</ele>
        <time>2026-05-07T16:29:30.993Z</time>
      </trkpt>
      <trkpt lat="52.270878" lon="21.903097">
        <ele>145.280086</ele>
        <time>2026-05-07T16:29:32.047Z</time>
      </trkpt>
      <trkpt lat="52.270776" lon="21.903105">
        <ele>145.320906</ele>
        <time>2026-05-07T16:29:33.391Z</time>
      </trkpt>
      <trkpt lat="52.270679" lon="21.903113">
        <ele>145.359730</ele>
        <time>2026-05-07T16:29:34.619Z</time>
      </trkpt>
      <trkpt lat="52.270672" lon="21.903280">
        <ele>145.400676</ele>
        <time>2026-05-07T16:29:35.944Z</time>
      </trkpt>
      <trkpt lat="52.270578" lon="21.903620">
        <ele>145.491938</ele>
        <time>2026-05-07T16:29:38.851Z</time>
      </trkpt>
      <trkpt lat="52.270322" lon="21.904480">
        <ele>145.677804</ele>
        <time>2026-05-07T16:29:46.030Z</time>
      </trkpt>
      <trkpt lat="52.269531" lon="21.907146">
        <ele>145.121660</ele>
        <time>2026-05-07T16:30:05.746Z</time>
      </trkpt>
      <trkpt lat="52.269429" lon="21.907604">
        <ele>144.961290</ele>
        <time>2026-05-07T16:30:08.815Z</time>
      </trkpt>
      <trkpt lat="52.269349" lon="21.908106">
        <ele>144.790602</ele>
        <time>2026-05-07T16:30:12.149Z</time>
      </trkpt>
      <trkpt lat="52.269235" lon="21.909190">
        <ele>144.428692</ele>
        <time>2026-05-07T16:30:19.068Z</time>
      </trkpt>
      <trkpt lat="52.269176" lon="21.909890">
        <ele>144.199799</ele>
        <time>2026-05-07T16:30:23.686Z</time>
      </trkpt>
      <trkpt lat="52.269144" lon="21.910317">
        <ele>144.213535</ele>
        <time>2026-05-07T16:30:26.648Z</time>
      </trkpt>
      <trkpt lat="52.269142" lon="21.910466">
        <ele>144.218294</ele>
        <time>2026-05-07T16:30:27.689Z</time>
      </trkpt>
      <trkpt lat="52.268926" lon="21.910308">
        <ele>144.230643</ele>
        <time>2026-05-07T16:30:30.321Z</time>
      </trkpt>
      <trkpt lat="52.268733" lon="21.910182">
        <ele>144.241487</ele>
        <time>2026-05-07T16:30:32.762Z</time>
      </trkpt>
      <trkpt lat="52.268365" lon="21.909957">
        <ele>144.261989</ele>
        <time>2026-05-07T16:30:37.469Z</time>
      </trkpt>
      <trkpt lat="52.268733" lon="21.910182">
        <ele>144.282491</ele>
        <time>2026-05-07T16:30:42.353Z</time>
      </trkpt>
      <trkpt lat="52.268926" lon="21.910308">
        <ele>144.293418</ele>
        <time>2026-05-07T16:30:45.318Z</time>
      </trkpt>
      <trkpt lat="52.269142" lon="21.910466">
        <ele>144.526979</ele>
        <time>2026-05-07T16:30:48.635Z</time>
      </trkpt>
      <trkpt lat="52.269146" lon="21.910686">
        <ele>144.659908</ele>
        <time>2026-05-07T16:30:50.453Z</time>
      </trkpt>
      <trkpt lat="52.269145" lon="21.910927">
        <ele>144.805465</ele>
        <time>2026-05-07T16:30:52.479Z</time>
      </trkpt>
      <trkpt lat="52.269149" lon="21.911179">
        <ele>144.957713</ele>
        <time>2026-05-07T16:30:54.669Z</time>
      </trkpt>
      <trkpt lat="52.269161" lon="21.911585">
        <ele>145.203205</ele>
        <time>2026-05-07T16:30:58.514Z</time>
      </trkpt>
      <trkpt lat="52.269162" lon="21.911813">
        <ele>145.340911</ele>
        <time>2026-05-07T16:31:00.876Z</time>
      </trkpt>
      <trkpt lat="52.269164" lon="21.912168">
        <ele>145.555325</ele>
        <time>2026-05-07T16:31:04.430Z</time>
      </trkpt>
      <trkpt lat="52.269165" lon="21.912335">
        <ele>145.656190</ele>
        <time>2026-05-07T16:31:06.053Z</time>
      </trkpt>
      <trkpt lat="52.269163" lon="21.913217">
        <ele>146.121971</ele>
        <time>2026-05-07T16:31:14.657Z</time>
      </trkpt>
      <trkpt lat="52.269188" lon="21.913554">
        <ele>146.213064</ele>
        <time>2026-05-07T16:31:17.900Z</time>
      </trkpt>
      <trkpt lat="52.269307" lon="21.913986">
        <ele>146.340189</ele>
        <time>2026-05-07T16:31:22.068Z</time>
      </trkpt>
      <trkpt lat="52.269505" lon="21.914499">
        <ele>146.502940</ele>
        <time>2026-05-07T16:31:27.622Z</time>
      </trkpt>
      <trkpt lat="52.269545" lon="21.914748">
        <ele>146.572020</ele>
        <time>2026-05-07T16:31:29.821Z</time>
      </trkpt>
      <trkpt lat="52.269551" lon="21.914889">
        <ele>146.609946</ele>
        <time>2026-05-07T16:31:31.033Z</time>
      </trkpt>
      <trkpt lat="52.269540" lon="21.915283">
        <ele>146.715781</ele>
        <time>2026-05-07T16:31:33.986Z</time>
      </trkpt>
      <trkpt lat="52.269503" lon="21.915288">
        <ele>146.732061</ele>
        <time>2026-05-07T16:31:34.444Z</time>
      </trkpt>
      <trkpt lat="52.269350" lon="21.915799">
        <ele>146.776832</ele>
        <time>2026-05-07T16:31:38.160Z</time>
      </trkpt>
      <trkpt lat="52.269301" lon="21.915966">
        <ele>146.631868</ele>
        <time>2026-05-07T16:31:39.234Z</time>
      </trkpt>
      <trkpt lat="52.269056" lon="21.916795">
        <ele>145.911283</ele>
        <time>2026-05-07T16:31:44.274Z</time>
      </trkpt>
      <trkpt lat="52.268969" lon="21.917110">
        <ele>145.640775</ele>
        <time>2026-05-07T16:31:46.156Z</time>
      </trkpt>
      <trkpt lat="52.268780" lon="21.917799">
        <ele>145.049772</ele>
        <time>2026-05-07T16:31:50.270Z</time>
      </trkpt>
      <trkpt lat="52.267675" lon="21.922155">
        <ele>143.026403</ele>
        <time>2026-05-07T16:32:20.084Z</time>
      </trkpt>
      <trkpt lat="52.262136" lon="21.943563">
        <ele>136.749710</ele>
        <time>2026-05-07T16:34:52.737Z</time>
      </trkpt>
      <trkpt lat="52.261945" lon="21.944115">
        <ele>136.618569</ele>
        <time>2026-05-07T16:34:56.858Z</time>
      </trkpt>
      <trkpt lat="52.261731" lon="21.944603">
        <ele>136.494413</ele>
        <time>2026-05-07T16:35:00.831Z</time>
      </trkpt>
      <trkpt lat="52.260756" lon="21.946673">
        <ele>136.633501</ele>
        <time>2026-05-07T16:35:19.761Z</time>
      </trkpt>
      <trkpt lat="52.260684" lon="21.946860">
        <ele>136.671881</ele>
        <time>2026-05-07T16:35:21.574Z</time>
      </trkpt>
      <trkpt lat="52.260646" lon="21.946980">
        <ele>136.695353</ele>
        <time>2026-05-07T16:35:22.667Z</time>
      </trkpt>
      <trkpt lat="52.260118" lon="21.949155">
        <ele>137.450527</ele>
        <time>2026-05-07T16:35:43.437Z</time>
      </trkpt>
      <trkpt lat="52.260010" lon="21.949677">
        <ele>137.670830</ele>
        <time>2026-05-07T16:35:48.312Z</time>
      </trkpt>
      <trkpt lat="52.259988" lon="21.949889">
        <ele>137.756800</ele>
        <time>2026-05-07T16:35:50.157Z</time>
      </trkpt>
      <trkpt lat="52.259998" lon="21.950070">
        <ele>137.829460</ele>
        <time>2026-05-07T16:35:51.704Z</time>
      </trkpt>
      <trkpt lat="52.260281" lon="21.951704">
        <ele>137.979185</ele>
        <time>2026-05-07T16:36:04.376Z</time>
      </trkpt>
      <trkpt lat="52.260422" lon="21.952486">
        <ele>137.959874</ele>
        <time>2026-05-07T16:36:09.573Z</time>
      </trkpt>
      <trkpt lat="52.260477" lon="21.952794">
        <ele>137.952274</ele>
        <time>2026-05-07T16:36:11.762Z</time>
      </trkpt>
      <trkpt lat="52.260574" lon="21.953333">
        <ele>137.940461</ele>
        <time>2026-05-07T16:36:15.809Z</time>
      </trkpt>
      <trkpt lat="52.260718" lon="21.954212">
        <ele>138.071708</ele>
        <time>2026-05-07T16:36:23.136Z</time>
      </trkpt>
      <trkpt lat="52.260793" lon="21.954879">
        <ele>138.169523</ele>
        <time>2026-05-07T16:36:29.042Z</time>
      </trkpt>
      <trkpt lat="52.260848" lon="21.956309">
        <ele>138.386541</ele>
        <time>2026-05-07T16:36:40.020Z</time>
      </trkpt>
      <trkpt lat="52.260853" lon="21.956668">
        <ele>138.479099</ele>
        <time>2026-05-07T16:36:42.432Z</time>
      </trkpt>
      <trkpt lat="52.260818" lon="21.957548">
        <ele>138.706402</ele>
        <time>2026-05-07T16:36:48.245Z</time>
      </trkpt>
      <trkpt lat="52.260331" lon="21.961838">
        <ele>140.634982</ele>
        <time>2026-05-07T16:37:28.018Z</time>
      </trkpt>
      <trkpt lat="52.259500" lon="21.967339">
        <ele>143.003672</ele>
        <time>2026-05-07T16:38:16.725Z</time>
      </trkpt>
      <trkpt lat="52.259481" lon="21.967436">
        <ele>143.042957</ele>
        <time>2026-05-07T16:38:17.534Z</time>
      </trkpt>
      <trkpt lat="52.258742" lon="21.972618">
        <ele>145.018300</ele>
        <time>2026-05-07T16:39:00.590Z</time>
      </trkpt>
      <trkpt lat="52.258406" lon="21.975007">
        <ele>145.681434</ele>
        <time>2026-05-07T16:39:26.782Z</time>
      </trkpt>
      <trkpt lat="52.258142" lon="21.976864">
        <ele>145.487146</ele>
        <time>2026-05-07T16:39:37.429Z</time>
      </trkpt>
      <trkpt lat="52.256219" lon="21.989708">
        <ele>137.064762</ele>
        <time>2026-05-07T16:40:55.869Z</time>
      </trkpt>
      <trkpt lat="52.255241" lon="21.996324">
        <ele>136.715221</ele>
        <time>2026-05-07T16:41:46.035Z</time>
      </trkpt>
      <trkpt lat="52.255063" lon="21.997041">
        <ele>136.431469</ele>
        <time>2026-05-07T16:41:50.957Z</time>
      </trkpt>
      <trkpt lat="52.254823" lon="21.997872">
        <ele>136.094493</ele>
        <time>2026-05-07T16:41:56.388Z</time>
      </trkpt>
      <trkpt lat="52.254346" lon="21.999389">
        <ele>135.565645</ele>
        <time>2026-05-07T16:42:07.352Z</time>
      </trkpt>
      <trkpt lat="52.253752" lon="22.001196">
        <ele>135.216305</ele>
        <time>2026-05-07T16:42:22.849Z</time>
      </trkpt>
      <trkpt lat="52.253732" lon="22.001380">
        <ele>135.184475</ele>
        <time>2026-05-07T16:42:24.005Z</time>
      </trkpt>
      <trkpt lat="52.253743" lon="22.001600">
        <ele>135.142087</ele>
        <time>2026-05-07T16:42:25.341Z</time>
      </trkpt>
      <trkpt lat="52.253832" lon="22.001910">
        <ele>134.950194</ele>
        <time>2026-05-07T16:42:27.355Z</time>
      </trkpt>
      <trkpt lat="52.254351" lon="22.002819">
        <ele>134.253567</ele>
        <time>2026-05-07T16:42:34.384Z</time>
      </trkpt>
      <trkpt lat="52.254470" lon="22.003091">
        <ele>134.066201</ele>
        <time>2026-05-07T16:42:36.212Z</time>
      </trkpt>
      <trkpt lat="52.255113" lon="22.006651">
        <ele>133.250419</ele>
        <time>2026-05-07T16:43:01.776Z</time>
      </trkpt>
      <trkpt lat="52.255496" lon="22.007874">
        <ele>132.917166</ele>
        <time>2026-05-07T16:43:12.489Z</time>
      </trkpt>
      <trkpt lat="52.256628" lon="22.011281">
        <ele>130.820185</ele>
        <time>2026-05-07T16:43:36.060Z</time>
      </trkpt>
      <trkpt lat="52.256725" lon="22.011694">
        <ele>130.478476</ele>
        <time>2026-05-07T16:43:38.403Z</time>
      </trkpt>
      <trkpt lat="52.256759" lon="22.011966">
        <ele>130.264027</ele>
        <time>2026-05-07T16:43:39.898Z</time>
      </trkpt>
      <trkpt lat="52.256780" lon="22.012457">
        <ele>129.933514</ele>
        <time>2026-05-07T16:43:42.550Z</time>
      </trkpt>
      <trkpt lat="52.256727" lon="22.013058">
        <ele>129.549918</ele>
        <time>2026-05-07T16:43:45.824Z</time>
      </trkpt>
      <trkpt lat="52.256630" lon="22.013492">
        <ele>129.258037</ele>
        <time>2026-05-07T16:43:48.457Z</time>
      </trkpt>
      <trkpt lat="52.256446" lon="22.013988">
        <ele>128.891642</ele>
        <time>2026-05-07T16:43:52.087Z</time>
      </trkpt>
      <trkpt lat="52.256302" lon="22.014259">
        <ele>128.664933</ele>
        <time>2026-05-07T16:43:54.477Z</time>
      </trkpt>
      <trkpt lat="52.256057" lon="22.014588">
        <ele>128.337621</ele>
        <time>2026-05-07T16:43:58.226Z</time>
      </trkpt>
      <trkpt lat="52.255870" lon="22.014776">
        <ele>128.281689</ele>
        <time>2026-05-07T16:44:00.831Z</time>
      </trkpt>
      <trkpt lat="52.255559" lon="22.014952">
        <ele>128.248276</ele>
        <time>2026-05-07T16:44:04.504Z</time>
      </trkpt>
      <trkpt lat="52.254326" lon="22.015296">
        <ele>128.121290</ele>
        <time>2026-05-07T16:44:18.413Z</time>
      </trkpt>
      <trkpt lat="52.254051" lon="22.015430">
        <ele>128.470514</ele>
        <time>2026-05-07T16:44:22.274Z</time>
      </trkpt>
      <trkpt lat="52.253520" lon="22.015764">
        <ele>129.267953</ele>
        <time>2026-05-07T16:44:31.046Z</time>
      </trkpt>
      <trkpt lat="52.253247" lon="22.015981">
        <ele>129.693444</ele>
        <time>2026-05-07T16:44:36.246Z</time>
      </trkpt>
      <trkpt lat="52.252522" lon="22.016623">
        <ele>130.807195</ele>
        <time>2026-05-07T16:44:52.130Z</time>
      </trkpt>
      <trkpt lat="52.252277" lon="22.016968">
        <ele>131.170179</ele>
        <time>2026-05-07T16:44:58.239Z</time>
      </trkpt>
      <trkpt lat="52.251903" lon="22.017618">
        <ele>131.782986</ele>
        <time>2026-05-07T16:45:07.461Z</time>
      </trkpt>
      <trkpt lat="52.251795" lon="22.017807">
        <ele>131.960598</ele>
        <time>2026-05-07T16:45:09.900Z</time>
      </trkpt>
      <trkpt lat="52.251767" lon="22.017772">
        <ele>132.000163</ele>
        <time>2026-05-07T16:45:10.438Z</time>
      </trkpt>
      <trkpt lat="52.248325" lon="22.013673">
        <ele>132.128912</ele>
        <time>2026-05-07T16:45:58.552Z</time>
      </trkpt>
      <trkpt lat="52.248154" lon="22.013511">
        <ele>132.139807</ele>
        <time>2026-05-07T16:46:01.143Z</time>
      </trkpt>
      <trkpt lat="52.247336" lon="22.012760">
        <ele>132.191521</ele>
        <time>2026-05-07T16:46:13.260Z</time>
      </trkpt>
      <trkpt lat="52.247034" lon="22.012439">
        <ele>132.211378</ele>
        <time>2026-05-07T16:46:17.589Z</time>
      </trkpt>
      <trkpt lat="52.246780" lon="22.012040">
        <ele>132.147204</ele>
        <time>2026-05-07T16:46:21.505Z</time>
      </trkpt>
      <trkpt lat="52.245303" lon="22.008265">
        <ele>130.653409</ele>
        <time>2026-05-07T16:46:49.629Z</time>
      </trkpt>
      <trkpt lat="52.244384" lon="22.005831">
        <ele>130.813630</ele>
        <time>2026-05-07T16:47:09.808Z</time>
      </trkpt>
      <trkpt lat="52.244103" lon="22.005134">
        <ele>131.059105</ele>
        <time>2026-05-07T16:47:17.321Z</time>
      </trkpt>
      <trkpt lat="52.243599" lon="22.004081">
        <ele>131.775099</ele>
        <time>2026-05-07T16:47:31.434Z</time>
      </trkpt>
      <trkpt lat="52.243063" lon="22.002982">
        <ele>132.689200</ele>
        <time>2026-05-07T16:47:45.407Z</time>
      </trkpt>
      <trkpt lat="52.242036" lon="22.001180">
        <ele>133.106756</ele>
        <time>2026-05-07T16:48:03.269Z</time>
      </trkpt>
      <trkpt lat="52.241985" lon="22.001093">
        <ele>133.107401</ele>
        <time>2026-05-07T16:48:04.092Z</time>
      </trkpt>
      <trkpt lat="52.241492" lon="22.000241">
        <ele>133.087599</ele>
        <time>2026-05-07T16:48:12.196Z</time>
      </trkpt>
      <trkpt lat="52.241419" lon="22.000156">
        <ele>133.068323</ele>
        <time>2026-05-07T16:48:13.247Z</time>
      </trkpt>
      <trkpt lat="52.241312" lon="22.000117">
        <ele>133.044752</ele>
        <time>2026-05-07T16:48:14.545Z</time>
      </trkpt>
      <trkpt lat="52.238547" lon="22.000499">
        <ele>132.576805</ele>
        <time>2026-05-07T16:48:45.698Z</time>
      </trkpt>
      <trkpt lat="52.236510" lon="22.000781">
        <ele>132.930074</ele>
        <time>2026-05-07T16:49:10.960Z</time>
      </trkpt>
      <trkpt lat="52.235903" lon="22.000766">
        <ele>133.113569</ele>
        <time>2026-05-07T16:49:19.600Z</time>
      </trkpt>
      <trkpt lat="52.234558" lon="22.000882">
        <ele>133.555711</ele>
        <time>2026-05-07T16:49:37.198Z</time>
      </trkpt>
      <trkpt lat="52.234274" lon="22.000870">
        <ele>133.531759</ele>
        <time>2026-05-07T16:49:40.472Z</time>
      </trkpt>
      <trkpt lat="52.232994" lon="22.000549">
        <ele>133.106453</ele>
        <time>2026-05-07T16:49:54.804Z</time>
      </trkpt>
      <trkpt lat="52.231879" lon="22.000180">
        <ele>132.666986</ele>
        <time>2026-05-07T16:50:06.333Z</time>
      </trkpt>
      <trkpt lat="52.230862" lon="21.999596">
        <ele>132.296818</ele>
        <time>2026-05-07T16:50:18.160Z</time>
      </trkpt>
      <trkpt lat="52.228754" lon="21.998154">
        <ele>133.230929</ele>
        <time>2026-05-07T16:50:48.961Z</time>
      </trkpt>
      <trkpt lat="52.227829" lon="21.997077">
        <ele>133.840734</ele>
        <time>2026-05-07T16:51:03.905Z</time>
      </trkpt>
      <trkpt lat="52.227003" lon="21.995875">
        <ele>134.629140</ele>
        <time>2026-05-07T16:51:20.510Z</time>
      </trkpt>
      <trkpt lat="52.226140" lon="21.994526">
        <ele>135.091220</ele>
        <time>2026-05-07T16:51:37.025Z</time>
      </trkpt>
      <trkpt lat="52.225668" lon="21.993979">
        <ele>134.950546</ele>
        <time>2026-05-07T16:51:43.274Z</time>
      </trkpt>
      <trkpt lat="52.224028" lon="21.992360">
        <ele>134.773283</ele>
        <time>2026-05-07T16:52:03.021Z</time>
      </trkpt>
      <trkpt lat="52.222595" lon="21.990849">
        <ele>135.795638</ele>
        <time>2026-05-07T16:52:29.248Z</time>
      </trkpt>
      <trkpt lat="52.221192" lon="21.989477">
        <ele>137.070445</ele>
        <time>2026-05-07T16:52:53.009Z</time>
      </trkpt>
      <trkpt lat="52.220758" lon="21.989170">
        <ele>137.349774</ele>
        <time>2026-05-07T16:52:59.477Z</time>
      </trkpt>
      <trkpt lat="52.220680" lon="21.989521">
        <ele>137.484855</ele>
        <time>2026-05-07T16:53:02.521Z</time>
      </trkpt>
      <trkpt lat="52.220343" lon="21.990464">
        <ele>137.603122</ele>
        <time>2026-05-07T16:53:10.989Z</time>
      </trkpt>
      <trkpt lat="52.218618" lon="21.995628">
        <ele>137.133503</ele>
        <time>2026-05-07T16:53:51.653Z</time>
      </trkpt>
      <trkpt lat="52.218477" lon="21.996110">
        <ele>137.112287</ele>
        <time>2026-05-07T16:53:55.159Z</time>
      </trkpt>
      <trkpt lat="52.218407" lon="21.996618">
        <ele>137.091604</ele>
        <time>2026-05-07T16:53:58.590Z</time>
      </trkpt>
      <trkpt lat="52.218390" lon="21.997421">
        <ele>137.059690</ele>
        <time>2026-05-07T16:54:04.418Z</time>
      </trkpt>
      <trkpt lat="52.218281" lon="21.998061">
        <ele>137.257674</ele>
        <time>2026-05-07T16:54:09.763Z</time>
      </trkpt>
      <trkpt lat="52.217608" lon="21.999907">
        <ele>138.770711</ele>
        <time>2026-05-07T16:54:29.770Z</time>
      </trkpt>
      <trkpt lat="52.217375" lon="22.000532">
        <ele>139.362092</ele>
        <time>2026-05-07T16:54:38.370Z</time>
      </trkpt>
      <trkpt lat="52.217198" lon="22.000867">
        <ele>139.810747</ele>
        <time>2026-05-07T16:54:43.560Z</time>
      </trkpt>
      <trkpt lat="52.216584" lon="22.001674">
        <ele>141.115744</ele>
        <time>2026-05-07T16:54:57.517Z</time>
      </trkpt>
      <trkpt lat="52.216419" lon="22.001962">
        <ele>141.515654</ele>
        <time>2026-05-07T16:55:01.883Z</time>
      </trkpt>
      <trkpt lat="52.216238" lon="22.002356">
        <ele>142.015119</ele>
        <time>2026-05-07T16:55:07.007Z</time>
      </trkpt>
      <trkpt lat="52.213962" lon="22.008965">
        <ele>143.637971</ele>
        <time>2026-05-07T16:56:05.558Z</time>
      </trkpt>
      <trkpt lat="52.213790" lon="22.009525">
        <ele>143.811730</ele>
        <time>2026-05-07T16:56:10.679Z</time>
      </trkpt>
      <trkpt lat="52.213751" lon="22.009737">
        <ele>143.873129</ele>
        <time>2026-05-07T16:56:12.623Z</time>
      </trkpt>
      <trkpt lat="52.213749" lon="22.009964">
        <ele>143.936102</ele>
        <time>2026-05-07T16:56:14.685Z</time>
      </trkpt>
      <trkpt lat="52.213799" lon="22.010199">
        <ele>144.011402</ele>
        <time>2026-05-07T16:56:16.965Z</time>
      </trkpt>
      <trkpt lat="52.213862" lon="22.010330">
        <ele>144.101720</ele>
        <time>2026-05-07T16:56:18.502Z</time>
      </trkpt>
      <trkpt lat="52.213934" lon="22.010438">
        <ele>144.188278</ele>
        <time>2026-05-07T16:56:19.945Z</time>
      </trkpt>
      <trkpt lat="52.214064" lon="22.010548">
        <ele>144.317891</ele>
        <time>2026-05-07T16:56:22.066Z</time>
      </trkpt>
      <trkpt lat="52.214233" lon="22.010580">
        <ele>144.468483</ele>
        <time>2026-05-07T16:56:24.473Z</time>
      </trkpt>
      <trkpt lat="52.214516" lon="22.010553">
        <ele>144.719406</ele>
        <time>2026-05-07T16:56:28.562Z</time>
      </trkpt>
      <trkpt lat="52.214608" lon="22.010596">
        <ele>144.804112</ele>
        <time>2026-05-07T16:56:30.017Z</time>
      </trkpt>
      <trkpt lat="52.214735" lon="22.010828">
        <ele>144.972835</ele>
        <time>2026-05-07T16:56:32.904Z</time>
      </trkpt>
      <trkpt lat="52.214741" lon="22.011175">
        <ele>145.161098</ele>
        <time>2026-05-07T16:56:36.163Z</time>
      </trkpt>
      <trkpt lat="52.214714" lon="22.011431">
        <ele>145.301977</ele>
        <time>2026-05-07T16:56:38.596Z</time>
      </trkpt>
      <trkpt lat="52.214666" lon="22.011588">
        <ele>145.397134</ele>
        <time>2026-05-07T16:56:40.226Z</time>
      </trkpt>
      <trkpt lat="52.214599" lon="22.011692">
        <ele>145.478977</ele>
        <time>2026-05-07T16:56:41.645Z</time>
      </trkpt>
      <trkpt lat="52.214515" lon="22.011761">
        <ele>145.562215</ele>
        <time>2026-05-07T16:56:43.040Z</time>
      </trkpt>
      <trkpt lat="52.214386" lon="22.011761">
        <ele>145.605767</ele>
        <time>2026-05-07T16:56:44.912Z</time>
      </trkpt>
      <trkpt lat="52.213941" lon="22.011372">
        <ele>145.684906</ele>
        <time>2026-05-07T16:56:51.665Z</time>
      </trkpt>
      <trkpt lat="52.213776" lon="22.011287">
        <ele>145.712031</ele>
        <time>2026-05-07T16:56:53.842Z</time>
      </trkpt>
      <trkpt lat="52.213635" lon="22.011282">
        <ele>145.734140</ele>
        <time>2026-05-07T16:56:55.643Z</time>
      </trkpt>
      <trkpt lat="52.213494" lon="22.011336">
        <ele>145.756845</ele>
        <time>2026-05-07T16:56:57.496Z</time>
      </trkpt>
      <trkpt lat="52.213263" lon="22.011565">
        <ele>145.799216</ele>
        <time>2026-05-07T16:57:00.762Z</time>
      </trkpt>
      <trkpt lat="52.213172" lon="22.011785">
        <ele>145.824712</ele>
        <time>2026-05-07T16:57:02.605Z</time>
      </trkpt>
      <trkpt lat="52.213035" lon="22.012239">
        <ele>145.871169</ele>
        <time>2026-05-07T16:57:05.957Z</time>
      </trkpt>
      <trkpt lat="52.212914" lon="22.012875">
        <ele>145.760137</ele>
        <time>2026-05-07T16:57:10.120Z</time>
      </trkpt>
      <trkpt lat="52.212903" lon="22.013432">
        <ele>145.667223</ele>
        <time>2026-05-07T16:57:13.555Z</time>
      </trkpt>
      <trkpt lat="52.213048" lon="22.014856">
        <ele>145.426549</ele>
        <time>2026-05-07T16:57:23.534Z</time>
      </trkpt>
      <trkpt lat="52.213024" lon="22.015323">
        <ele>145.419969</ele>
        <time>2026-05-07T16:57:27.259Z</time>
      </trkpt>
      <trkpt lat="52.212947" lon="22.015764">
        <ele>145.501155</ele>
        <time>2026-05-07T16:57:31.012Z</time>
      </trkpt>
      <trkpt lat="52.212809" lon="22.016186">
        <ele>145.585844</ele>
        <time>2026-05-07T16:57:34.984Z</time>
      </trkpt>
      <trkpt lat="52.212645" lon="22.016507">
        <ele>145.659840</ele>
        <time>2026-05-07T16:57:38.517Z</time>
      </trkpt>
      <trkpt lat="52.211746" lon="22.017909">
        <ele>145.864300</ele>
        <time>2026-05-07T16:57:53.966Z</time>
      </trkpt>
      <trkpt lat="52.211570" lon="22.018353">
        <ele>145.833280</ele>
        <time>2026-05-07T16:57:57.588Z</time>
      </trkpt>
      <trkpt lat="52.211178" lon="22.020090">
        <ele>145.754916</ele>
        <time>2026-05-07T16:58:10.231Z</time>
      </trkpt>
      <trkpt lat="52.210927" lon="22.021556">
        <ele>146.119369</ele>
        <time>2026-05-07T16:58:22.094Z</time>
      </trkpt>
      <trkpt lat="52.210888" lon="22.022021">
        <ele>146.231744</ele>
        <time>2026-05-07T16:58:26.019Z</time>
      </trkpt>
      <trkpt lat="52.210922" lon="22.023489">
        <ele>146.638797</ele>
        <time>2026-05-07T16:58:38.713Z</time>
      </trkpt>
      <trkpt lat="52.210902" lon="22.023898">
        <ele>146.773258</ele>
        <time>2026-05-07T16:58:42.219Z</time>
      </trkpt>
      <trkpt lat="52.210851" lon="22.024252">
        <ele>146.892431</ele>
        <time>2026-05-07T16:58:45.272Z</time>
      </trkpt>
      <trkpt lat="52.210752" lon="22.024632">
        <ele>147.027750</ele>
        <time>2026-05-07T16:58:48.705Z</time>
      </trkpt>
      <trkpt lat="52.210256" lon="22.025851">
        <ele>147.483869</ele>
        <time>2026-05-07T16:59:00.671Z</time>
      </trkpt>
      <trkpt lat="52.210136" lon="22.026312">
        <ele>147.613657</ele>
        <time>2026-05-07T16:59:04.700Z</time>
      </trkpt>
      <trkpt lat="52.209866" lon="22.028969">
        <ele>148.378504</ele>
        <time>2026-05-07T16:59:26.360Z</time>
      </trkpt>
      <trkpt lat="52.209688" lon="22.031212">
        <ele>149.216811</ele>
        <time>2026-05-07T16:59:45.516Z</time>
      </trkpt>
      <trkpt lat="52.209654" lon="22.031568">
        <ele>149.451608</ele>
        <time>2026-05-07T16:59:48.736Z</time>
      </trkpt>
      <trkpt lat="52.209538" lon="22.032265">
        <ele>149.974061</ele>
        <time>2026-05-07T16:59:55.358Z</time>
      </trkpt>
      <trkpt lat="52.209462" lon="22.034249">
        <ele>151.413370</ele>
        <time>2026-05-07T17:00:14.984Z</time>
      </trkpt>
      <trkpt lat="52.209456" lon="22.034402">
        <ele>151.527586</ele>
        <time>2026-05-07T17:00:16.548Z</time>
      </trkpt>
      <trkpt lat="52.209435" lon="22.035151">
        <ele>152.086169</ele>
        <time>2026-05-07T17:00:24.140Z</time>
      </trkpt>
      <trkpt lat="52.209425" lon="22.035537">
        <ele>152.373992</ele>
        <time>2026-05-07T17:00:27.999Z</time>
      </trkpt>
      <trkpt lat="52.209505" lon="22.036538">
        <ele>153.126044</ele>
        <time>2026-05-07T17:00:37.802Z</time>
      </trkpt>
      <trkpt lat="52.209465" lon="22.044983">
        <ele>157.600537</ele>
        <time>2026-05-07T17:01:52.960Z</time>
      </trkpt>
      <trkpt lat="52.209587" lon="22.047328">
        <ele>159.089791</ele>
        <time>2026-05-07T17:02:13.794Z</time>
      </trkpt>
      <trkpt lat="52.209597" lon="22.047936">
        <ele>159.524118</ele>
        <time>2026-05-07T17:02:19.640Z</time>
      </trkpt>
      <trkpt lat="52.209444" lon="22.050114">
        <ele>161.256136</ele>
        <time>2026-05-07T17:02:42.810Z</time>
      </trkpt>
      <trkpt lat="52.209417" lon="22.052095">
        <ele>162.607661</ele>
        <time>2026-05-07T17:03:02.686Z</time>
      </trkpt>
      <trkpt lat="52.209335" lon="22.056608">
        <ele>161.432720</ele>
        <time>2026-05-07T17:03:31.720Z</time>
      </trkpt>
      <trkpt lat="52.209163" lon="22.060281">
        <ele>159.446519</ele>
        <time>2026-05-07T17:03:53.769Z</time>
      </trkpt>
      <trkpt lat="52.209165" lon="22.060478">
        <ele>159.332897</ele>
        <time>2026-05-07T17:03:55.007Z</time>
      </trkpt>
      <trkpt lat="52.209204" lon="22.060716">
        <ele>159.264055</ele>
        <time>2026-05-07T17:03:56.543Z</time>
      </trkpt>
      <trkpt lat="52.209258" lon="22.060891">
        <ele>159.237233</ele>
        <time>2026-05-07T17:03:57.759Z</time>
      </trkpt>
      <trkpt lat="52.209320" lon="22.061008">
        <ele>159.216060</ele>
        <time>2026-05-07T17:03:58.709Z</time>
      </trkpt>
      <trkpt lat="52.209462" lon="22.061173">
        <ele>159.177119</ele>
        <time>2026-05-07T17:04:00.459Z</time>
      </trkpt>
      <trkpt lat="52.209718" lon="22.061263">
        <ele>159.118619</ele>
        <time>2026-05-07T17:04:03.060Z</time>
      </trkpt>
      <trkpt lat="52.209909" lon="22.061188">
        <ele>159.074734</ele>
        <time>2026-05-07T17:04:05.031Z</time>
      </trkpt>
      <trkpt lat="52.210772" lon="22.060598">
        <ele>158.971532</ele>
        <time>2026-05-07T17:04:17.296Z</time>
      </trkpt>
      <trkpt lat="52.210896" lon="22.060619">
        <ele>159.096093</ele>
        <time>2026-05-07T17:04:19.115Z</time>
      </trkpt>
      <trkpt lat="52.210998" lon="22.060723">
        <ele>159.216263</ele>
        <time>2026-05-07T17:04:20.888Z</time>
      </trkpt>
      <trkpt lat="52.211070" lon="22.060939">
        <ele>159.366808</ele>
        <time>2026-05-07T17:04:23.117Z</time>
      </trkpt>
      <trkpt lat="52.211095" lon="22.061194">
        <ele>159.524915</ele>
        <time>2026-05-07T17:04:25.462Z</time>
      </trkpt>
      <trkpt lat="52.211109" lon="22.061328">
        <ele>159.608139</ele>
        <time>2026-05-07T17:04:26.706Z</time>
      </trkpt>
      <trkpt lat="52.211117" lon="22.061645">
        <ele>159.802384</ele>
        <time>2026-05-07T17:04:29.632Z</time>
      </trkpt>
      <trkpt lat="52.211073" lon="22.061792">
        <ele>159.902547</ele>
        <time>2026-05-07T17:04:31.200Z</time>
      </trkpt>
      <trkpt lat="52.210987" lon="22.061921">
        <ele>160.019257</ele>
        <time>2026-05-07T17:04:33.082Z</time>
      </trkpt>
      <trkpt lat="52.210858" lon="22.061957">
        <ele>160.150020</ele>
        <time>2026-05-07T17:04:35.318Z</time>
      </trkpt>
      <trkpt lat="52.210350" lon="22.061896">
        <ele>160.658966</ele>
        <time>2026-05-07T17:04:43.985Z</time>
      </trkpt>
      <trkpt lat="52.210065" lon="22.061934">
        <ele>160.798369</ele>
        <time>2026-05-07T17:04:47.796Z</time>
      </trkpt>
      <trkpt lat="52.209310" lon="22.062242">
        <ele>161.142540</ele>
        <time>2026-05-07T17:04:58.485Z</time>
      </trkpt>
      <trkpt lat="52.209207" lon="22.062320">
        <ele>161.192757</ele>
        <time>2026-05-07T17:05:00.135Z</time>
      </trkpt>
      <trkpt lat="52.209117" lon="22.062438">
        <ele>161.243814</ele>
        <time>2026-05-07T17:05:01.812Z</time>
      </trkpt>
      <trkpt lat="52.209044" lon="22.062616">
        <ele>161.301859</ele>
        <time>2026-05-07T17:05:03.708Z</time>
      </trkpt>
      <trkpt lat="52.208494" lon="22.067406">
        <ele>159.766420</ele>
        <time>2026-05-07T17:05:34.994Z</time>
      </trkpt>
      <trkpt lat="52.208194" lon="22.069739">
        <ele>158.408021</ele>
        <time>2026-05-07T17:05:48.705Z</time>
      </trkpt>
      <trkpt lat="52.208203" lon="22.070330">
        <ele>158.118318</ele>
        <time>2026-05-07T17:05:52.051Z</time>
      </trkpt>
      <trkpt lat="52.208285" lon="22.070912">
        <ele>157.825674</ele>
        <time>2026-05-07T17:05:55.603Z</time>
      </trkpt>
      <trkpt lat="52.208319" lon="22.071447">
        <ele>157.562098</ele>
        <time>2026-05-07T17:05:59.081Z</time>
      </trkpt>
      <trkpt lat="52.208311" lon="22.071686">
        <ele>157.444805</ele>
        <time>2026-05-07T17:06:00.779Z</time>
      </trkpt>
      <trkpt lat="52.208251" lon="22.072133">
        <ele>157.398156</ele>
        <time>2026-05-07T17:06:04.532Z</time>
      </trkpt>
      <trkpt lat="52.208115" lon="22.072612">
        <ele>157.553842</ele>
        <time>2026-05-07T17:06:09.243Z</time>
      </trkpt>
      <trkpt lat="52.207761" lon="22.073397">
        <ele>157.841274</ele>
        <time>2026-05-07T17:06:18.155Z</time>
      </trkpt>
      <trkpt lat="52.207651" lon="22.073708">
        <ele>157.947172</ele>
        <time>2026-05-07T17:06:21.510Z</time>
      </trkpt>
      <trkpt lat="52.207574" lon="22.074036">
        <ele>158.050757</ele>
        <time>2026-05-07T17:06:24.687Z</time>
      </trkpt>
      <trkpt lat="52.206803" lon="22.079541">
        <ele>157.155928</ele>
        <time>2026-05-07T17:07:01.553Z</time>
      </trkpt>
      <trkpt lat="52.206730" lon="22.080630">
        <ele>157.083232</ele>
        <time>2026-05-07T17:07:10.438Z</time>
      </trkpt>
      <trkpt lat="52.206665" lon="22.081068">
        <ele>157.117123</ele>
        <time>2026-05-07T17:07:14.157Z</time>
      </trkpt>
      <trkpt lat="52.206629" lon="22.081312">
        <ele>157.135997</ele>
        <time>2026-05-07T17:07:16.240Z</time>
      </trkpt>
      <trkpt lat="52.206553" lon="22.081739">
        <ele>157.169436</ele>
        <time>2026-05-07T17:07:19.956Z</time>
      </trkpt>
      <trkpt lat="52.206401" lon="22.082265">
        <ele>157.213171</ele>
        <time>2026-05-07T17:07:24.408Z</time>
      </trkpt>
      <trkpt lat="52.206339" lon="22.082563">
        <ele>157.236838</ele>
        <time>2026-05-07T17:07:26.817Z</time>
      </trkpt>
      <trkpt lat="52.205433" lon="22.088474">
        <ele>154.912435</ele>
        <time>2026-05-07T17:08:05.001Z</time>
      </trkpt>
      <trkpt lat="52.205195" lon="22.090107">
        <ele>154.249396</ele>
        <time>2026-05-07T17:08:15.540Z</time>
      </trkpt>
      <trkpt lat="52.205191" lon="22.090611">
        <ele>154.054925</ele>
        <time>2026-05-07T17:08:18.741Z</time>
      </trkpt>
      <trkpt lat="52.205300" lon="22.091400">
        <ele>153.742872</ele>
        <time>2026-05-07T17:08:23.900Z</time>
      </trkpt>
      <trkpt lat="52.205319" lon="22.091739">
        <ele>153.621369</ele>
        <time>2026-05-07T17:08:26.075Z</time>
      </trkpt>
      <trkpt lat="52.205311" lon="22.092080">
        <ele>153.522074</ele>
        <time>2026-05-07T17:08:28.256Z</time>
      </trkpt>
      <trkpt lat="52.205276" lon="22.092403">
        <ele>153.426631</ele>
        <time>2026-05-07T17:08:30.396Z</time>
      </trkpt>
      <trkpt lat="52.204866" lon="22.094836">
        <ele>152.773786</ele>
        <time>2026-05-07T17:08:46.891Z</time>
      </trkpt>
      <trkpt lat="52.204665" lon="22.095388">
        <ele>152.731562</ele>
        <time>2026-05-07T17:08:51.033Z</time>
      </trkpt>
      <trkpt lat="52.204454" lon="22.095781">
        <ele>152.697203</ele>
        <time>2026-05-07T17:08:54.522Z</time>
      </trkpt>
      <trkpt lat="52.204301" lon="22.096153">
        <ele>152.667741</ele>
        <time>2026-05-07T17:08:57.604Z</time>
      </trkpt>
      <trkpt lat="52.204163" lon="22.096744">
        <ele>152.626151</ele>
        <time>2026-05-07T17:09:02.103Z</time>
      </trkpt>
      <trkpt lat="52.203672" lon="22.100385">
        <ele>154.506294</ele>
        <time>2026-05-07T17:09:35.891Z</time>
      </trkpt>
      <trkpt lat="52.203195" lon="22.103747">
        <ele>157.190284</ele>
        <time>2026-05-07T17:10:10.922Z</time>
      </trkpt>
      <trkpt lat="52.202708" lon="22.107262">
        <ele>159.315361</ele>
        <time>2026-05-07T17:10:42.664Z</time>
      </trkpt>
      <trkpt lat="52.202693" lon="22.107526">
        <ele>159.458975</ele>
        <time>2026-05-07T17:10:45.089Z</time>
      </trkpt>
      <trkpt lat="52.202730" lon="22.107726">
        <ele>159.572137</ele>
        <time>2026-05-07T17:10:47.009Z</time>
      </trkpt>
      <trkpt lat="52.202794" lon="22.107904">
        <ele>159.683921</ele>
        <time>2026-05-07T17:10:49.010Z</time>
      </trkpt>
      <trkpt lat="52.202881" lon="22.108042">
        <ele>159.791159</ele>
        <time>2026-05-07T17:10:50.991Z</time>
      </trkpt>
      <trkpt lat="52.203267" lon="22.108397">
        <ele>160.069566</ele>
        <time>2026-05-07T17:10:57.935Z</time>
      </trkpt>
      <trkpt lat="52.203342" lon="22.108621">
        <ele>160.116442</ele>
        <time>2026-05-07T17:11:00.217Z</time>
      </trkpt>
      <trkpt lat="52.203333" lon="22.108861">
        <ele>160.160601</ele>
        <time>2026-05-07T17:11:02.276Z</time>
      </trkpt>
      <trkpt lat="52.203320" lon="22.108997">
        <ele>160.185879</ele>
        <time>2026-05-07T17:11:03.352Z</time>
      </trkpt>
      <trkpt lat="52.203268" lon="22.109343">
        <ele>160.251304</ele>
        <time>2026-05-07T17:11:06.030Z</time>
      </trkpt>
      <trkpt lat="52.203199" lon="22.109476">
        <ele>160.283306</ele>
        <time>2026-05-07T17:11:07.270Z</time>
      </trkpt>
      <trkpt lat="52.203083" lon="22.109556">
        <ele>160.321044</ele>
        <time>2026-05-07T17:11:08.702Z</time>
      </trkpt>
      <trkpt lat="52.202771" lon="22.109546">
        <ele>160.414556</ele>
        <time>2026-05-07T17:11:12.253Z</time>
      </trkpt>
      <trkpt lat="52.202639" lon="22.109572">
        <ele>160.454398</ele>
        <time>2026-05-07T17:11:13.725Z</time>
      </trkpt>
      <trkpt lat="52.202549" lon="22.109639">
        <ele>160.484042</ele>
        <time>2026-05-07T17:11:14.836Z</time>
      </trkpt>
      <trkpt lat="52.202420" lon="22.109804">
        <ele>160.533159</ele>
        <time>2026-05-07T17:11:16.668Z</time>
      </trkpt>
      <trkpt lat="52.202333" lon="22.110041">
        <ele>160.597010</ele>
        <time>2026-05-07T17:11:18.492Z</time>
      </trkpt>
      <trkpt lat="52.201589" lon="22.115718">
        <ele>162.359026</ele>
        <time>2026-05-07T17:12:06.998Z</time>
      </trkpt>
      <trkpt lat="52.201214" lon="22.118582">
        <ele>163.605681</ele>
        <time>2026-05-07T17:12:32.755Z</time>
      </trkpt>
      <trkpt lat="52.201210" lon="22.118610">
        <ele>163.613922</ele>
        <time>2026-05-07T17:12:33.017Z</time>
      </trkpt>
      <trkpt lat="52.200330" lon="22.125098">
        <ele>165.458048</ele>
        <time>2026-05-07T17:13:26.728Z</time>
      </trkpt>
      <trkpt lat="52.200179" lon="22.126423">
        <ele>165.885103</ele>
        <time>2026-05-07T17:13:37.782Z</time>
      </trkpt>
      <trkpt lat="52.200046" lon="22.127678">
        <ele>166.155004</ele>
        <time>2026-05-07T17:13:48.921Z</time>
      </trkpt>
      <trkpt lat="52.199704" lon="22.129842">
        <ele>166.367622</ele>
        <time>2026-05-07T17:14:06.590Z</time>
      </trkpt>
      <trkpt lat="52.199690" lon="22.130067">
        <ele>166.279387</ele>
        <time>2026-05-07T17:14:07.916Z</time>
      </trkpt>
      <trkpt lat="52.199704" lon="22.130275">
        <ele>166.121550</ele>
        <time>2026-05-07T17:14:09.109Z</time>
      </trkpt>
      <trkpt lat="52.199835" lon="22.130989">
        <ele>165.559370</ele>
        <time>2026-05-07T17:14:13.237Z</time>
      </trkpt>
      <trkpt lat="52.199843" lon="22.131275">
        <ele>165.343417</ele>
        <time>2026-05-07T17:14:14.799Z</time>
      </trkpt>
      <trkpt lat="52.199819" lon="22.131759">
        <ele>164.977146</ele>
        <time>2026-05-07T17:14:17.462Z</time>
      </trkpt>
      <trkpt lat="52.199730" lon="22.132122">
        <ele>164.682242</ele>
        <time>2026-05-07T17:14:19.576Z</time>
      </trkpt>
      <trkpt lat="52.199358" lon="22.132819">
        <ele>164.153673</ele>
        <time>2026-05-07T17:14:25.041Z</time>
      </trkpt>
      <trkpt lat="52.199247" lon="22.133204">
        <ele>164.136346</ele>
        <time>2026-05-07T17:14:27.964Z</time>
      </trkpt>
      <trkpt lat="52.198867" lon="22.136171">
        <ele>163.941445</ele>
        <time>2026-05-07T17:14:51.641Z</time>
      </trkpt>
      <trkpt lat="52.198584" lon="22.138131">
        <ele>163.669659</ele>
        <time>2026-05-07T17:15:05.143Z</time>
      </trkpt>
      <trkpt lat="52.198564" lon="22.138586">
        <ele>163.490391</ele>
        <time>2026-05-07T17:15:07.981Z</time>
      </trkpt>
      <trkpt lat="52.198599" lon="22.138880">
        <ele>163.329873</ele>
        <time>2026-05-07T17:15:09.823Z</time>
      </trkpt>
      <trkpt lat="52.198687" lon="22.139185">
        <ele>163.149199</ele>
        <time>2026-05-07T17:15:11.876Z</time>
      </trkpt>
      <trkpt lat="52.198893" lon="22.139714">
        <ele>162.813293</ele>
        <time>2026-05-07T17:15:15.658Z</time>
      </trkpt>
      <trkpt lat="52.198989" lon="22.139902">
        <ele>162.682146</ele>
        <time>2026-05-07T17:15:17.114Z</time>
      </trkpt>
      <trkpt lat="52.199116" lon="22.140057">
        <ele>162.543460</ele>
        <time>2026-05-07T17:15:18.639Z</time>
      </trkpt>
      <trkpt lat="52.199305" lon="22.140087">
        <ele>162.377412</ele>
        <time>2026-05-07T17:15:20.458Z</time>
      </trkpt>
      <trkpt lat="52.199412" lon="22.140006">
        <ele>162.274267</ele>
        <time>2026-05-07T17:15:21.596Z</time>
      </trkpt>
      <trkpt lat="52.199510" lon="22.139858">
        <ele>162.157497</ele>
        <time>2026-05-07T17:15:22.891Z</time>
      </trkpt>
      <trkpt lat="52.199701" lon="22.139462">
        <ele>162.083069</ele>
        <time>2026-05-07T17:15:25.930Z</time>
      </trkpt>
      <trkpt lat="52.199845" lon="22.139350">
        <ele>162.089135</ele>
        <time>2026-05-07T17:15:27.569Z</time>
      </trkpt>
      <trkpt lat="52.200000" lon="22.139376">
        <ele>162.095061</ele>
        <time>2026-05-07T17:15:29.205Z</time>
      </trkpt>
      <trkpt lat="52.200080" lon="22.139471">
        <ele>162.098824</ele>
        <time>2026-05-07T17:15:30.266Z</time>
      </trkpt>
      <trkpt lat="52.200152" lon="22.139654">
        <ele>162.103892</ele>
        <time>2026-05-07T17:15:31.755Z</time>
      </trkpt>
      <trkpt lat="52.200222" lon="22.140054">
        <ele>162.113588</ele>
        <time>2026-05-07T17:15:34.785Z</time>
      </trkpt>
      <trkpt lat="52.200240" lon="22.140193">
        <ele>162.116899</ele>
        <time>2026-05-07T17:15:35.856Z</time>
      </trkpt>
      <trkpt lat="52.200214" lon="22.140479">
        <ele>162.123638</ele>
        <time>2026-05-07T17:15:38.166Z</time>
      </trkpt>
      <trkpt lat="52.200132" lon="22.140686">
        <ele>162.129382</ele>
        <time>2026-05-07T17:15:40.205Z</time>
      </trkpt>
      <trkpt lat="52.200003" lon="22.140821">
        <ele>162.135210</ele>
        <time>2026-05-07T17:15:42.387Z</time>
      </trkpt>
      <trkpt lat="52.199848" lon="22.140864">
        <ele>162.141189</ele>
        <time>2026-05-07T17:15:44.708Z</time>
      </trkpt>
      <trkpt lat="52.199409" lon="22.140817">
        <ele>162.653747</ele>
        <time>2026-05-07T17:15:51.695Z</time>
      </trkpt>
      <trkpt lat="52.199160" lon="22.140863">
        <ele>162.986784</ele>
        <time>2026-05-07T17:15:55.899Z</time>
      </trkpt>
      <trkpt lat="52.198328" lon="22.141209">
        <ele>164.127872</ele>
        <time>2026-05-07T17:16:10.428Z</time>
      </trkpt>
      <trkpt lat="52.198119" lon="22.141328">
        <ele>164.422063</ele>
        <time>2026-05-07T17:16:14.055Z</time>
      </trkpt>
      <trkpt lat="52.198017" lon="22.141438">
        <ele>164.557034</ele>
        <time>2026-05-07T17:16:16.037Z</time>
      </trkpt>
      <trkpt lat="52.197867" lon="22.141758">
        <ele>164.707523</ele>
        <time>2026-05-07T17:16:19.979Z</time>
      </trkpt>
      <trkpt lat="52.197430" lon="22.143207">
        <ele>165.310787</ele>
        <time>2026-05-07T17:16:33.967Z</time>
      </trkpt>
      <trkpt lat="52.196818" lon="22.144861">
        <ele>165.735520</ele>
        <time>2026-05-07T17:16:47.694Z</time>
      </trkpt>
      <trkpt lat="52.196117" lon="22.146518">
        <ele>165.954367</ele>
        <time>2026-05-07T17:17:03.216Z</time>
      </trkpt>
      <trkpt lat="52.195596" lon="22.147614">
        <ele>166.281155</ele>
        <time>2026-05-07T17:17:14.611Z</time>
      </trkpt>
      <trkpt lat="52.194878" lon="22.148950">
        <ele>166.685968</ele>
        <time>2026-05-07T17:17:28.814Z</time>
      </trkpt>
      <trkpt lat="52.194645" lon="22.149232">
        <ele>166.780535</ele>
        <time>2026-05-07T17:17:32.423Z</time>
      </trkpt>
      <trkpt lat="52.194078" lon="22.149753">
        <ele>166.992654</ele>
        <time>2026-05-07T17:17:40.810Z</time>
      </trkpt>
      <trkpt lat="52.193466" lon="22.150642">
        <ele>167.172236</ele>
        <time>2026-05-07T17:17:51.664Z</time>
      </trkpt>
      <trkpt lat="52.192926" lon="22.151670">
        <ele>167.076544</ele>
        <time>2026-05-07T17:18:01.891Z</time>
      </trkpt>
      <trkpt lat="52.192660" lon="22.152012">
        <ele>167.037491</ele>
        <time>2026-05-07T17:18:05.603Z</time>
      </trkpt>
      <trkpt lat="52.192411" lon="22.152330">
        <ele>167.001027</ele>
        <time>2026-05-07T17:18:08.894Z</time>
      </trkpt>
      <trkpt lat="52.191448" lon="22.153377">
        <ele>166.391907</ele>
        <time>2026-05-07T17:18:20.654Z</time>
      </trkpt>
      <trkpt lat="52.190794" lon="22.153857">
        <ele>165.981772</ele>
        <time>2026-05-07T17:18:28.343Z</time>
      </trkpt>
      <trkpt lat="52.190658" lon="22.153981">
        <ele>165.825579</ele>
        <time>2026-05-07T17:18:30.028Z</time>
      </trkpt>
      <trkpt lat="52.190280" lon="22.154326">
        <ele>165.327585</ele>
        <time>2026-05-07T17:18:34.768Z</time>
      </trkpt>
      <trkpt lat="52.188995" lon="22.155189">
        <ele>163.666730</ele>
        <time>2026-05-07T17:18:47.735Z</time>
      </trkpt>
      <trkpt lat="52.188075" lon="22.155766">
        <ele>162.089715</ele>
        <time>2026-05-07T17:18:56.303Z</time>
      </trkpt>
      <trkpt lat="52.187042" lon="22.156286">
        <ele>161.079831</ele>
        <time>2026-05-07T17:19:06.616Z</time>
      </trkpt>
      <trkpt lat="52.186141" lon="22.156723">
        <ele>161.232755</ele>
        <time>2026-05-07T17:19:18.949Z</time>
      </trkpt>
      <trkpt lat="52.185980" lon="22.156839">
        <ele>161.261389</ele>
        <time>2026-05-07T17:19:21.594Z</time>
      </trkpt>
      <trkpt lat="52.185767" lon="22.157072">
        <ele>161.303112</ele>
        <time>2026-05-07T17:19:25.510Z</time>
      </trkpt>
      <trkpt lat="52.185687" lon="22.157203">
        <ele>161.341809</ele>
        <time>2026-05-07T17:19:27.250Z</time>
      </trkpt>
      <trkpt lat="52.185524" lon="22.157546">
        <ele>161.441499</ele>
        <time>2026-05-07T17:19:31.282Z</time>
      </trkpt>
      <trkpt lat="52.185301" lon="22.158129">
        <ele>161.599351</ele>
        <time>2026-05-07T17:19:37.361Z</time>
      </trkpt>
      <trkpt lat="52.185031" lon="22.158607">
        <ele>161.748653</ele>
        <time>2026-05-07T17:19:42.511Z</time>
      </trkpt>
      <trkpt lat="52.184828" lon="22.158843">
        <ele>161.842057</ele>
        <time>2026-05-07T17:19:45.452Z</time>
      </trkpt>
      <trkpt lat="52.184556" lon="22.159053">
        <ele>161.954810</ele>
        <time>2026-05-07T17:19:48.846Z</time>
      </trkpt>
      <trkpt lat="52.184256" lon="22.159200">
        <ele>161.969976</ele>
        <time>2026-05-07T17:19:52.244Z</time>
      </trkpt>
      <trkpt lat="52.183948" lon="22.159238">
        <ele>161.957500</ele>
        <time>2026-05-07T17:19:55.597Z</time>
      </trkpt>
      <trkpt lat="52.182928" lon="22.159289">
        <ele>161.916280</ele>
        <time>2026-05-07T17:20:08.040Z</time>
      </trkpt>
      <trkpt lat="52.182789" lon="22.159363">
        <ele>161.910374</ele>
        <time>2026-05-07T17:20:09.969Z</time>
      </trkpt>
      <trkpt lat="52.182722" lon="22.159448">
        <ele>161.902636</ele>
        <time>2026-05-07T17:20:11.101Z</time>
      </trkpt>
      <trkpt lat="52.182614" lon="22.159752">
        <ele>161.778486</ele>
        <time>2026-05-07T17:20:13.906Z</time>
      </trkpt>
      <trkpt lat="52.182502" lon="22.162518">
        <ele>160.727039</ele>
        <time>2026-05-07T17:20:31.462Z</time>
      </trkpt>
      <trkpt lat="52.181662" lon="22.162502">
        <ele>159.757515</ele>
        <time>2026-05-07T17:20:42.085Z</time>
      </trkpt>
      <trkpt lat="52.180352" lon="22.162600">
        <ele>159.000295</ele>
        <time>2026-05-07T17:21:00.791Z</time>
      </trkpt>
      <trkpt lat="52.180307" lon="22.162890">
        <ele>159.079247</ele>
        <time>2026-05-07T17:21:03.393Z</time>
      </trkpt>
      <trkpt lat="52.180206" lon="22.163559">
        <ele>159.261089</ele>
        <time>2026-05-07T17:21:09.668Z</time>
      </trkpt>
      <trkpt lat="52.180171" lon="22.163795">
        <ele>159.325172</ele>
        <time>2026-05-07T17:21:11.870Z</time>
      </trkpt>
      <trkpt lat="52.180099" lon="22.164284">
        <ele>159.457903</ele>
        <time>2026-05-07T17:21:16.473Z</time>
      </trkpt>
      <trkpt lat="52.180037" lon="22.164711">
        <ele>159.580036</ele>
        <time>2026-05-07T17:21:20.730Z</time>
      </trkpt>
      <trkpt lat="52.179856" lon="22.165912">
        <ele>160.348145</ele>
        <time>2026-05-07T17:21:31.860Z</time>
      </trkpt>
      <trkpt lat="52.179574" lon="22.167829">
        <ele>161.631055</ele>
        <time>2026-05-07T17:21:50.153Z</time>
      </trkpt>
      <trkpt lat="52.179518" lon="22.168208">
        <ele>161.951168</ele>
        <time>2026-05-07T17:21:53.971Z</time>
      </trkpt>
      <trkpt lat="52.179384" lon="22.169118">
        <ele>162.719633</ele>
        <time>2026-05-07T17:22:03.052Z</time>
      </trkpt>
      <trkpt lat="52.179168" lon="22.170591">
        <ele>163.987442</ele>
        <time>2026-05-07T17:22:18.337Z</time>
      </trkpt>
      <trkpt lat="52.179103" lon="22.171005">
        <ele>164.390152</ele>
        <time>2026-05-07T17:22:22.996Z</time>
      </trkpt>
      <trkpt lat="52.178753" lon="22.173427">
        <ele>166.594984</ele>
        <time>2026-05-07T17:22:49.470Z</time>
      </trkpt>
      <trkpt lat="52.178326" lon="22.176300">
        <ele>166.774732</ele>
        <time>2026-05-07T17:23:12.417Z</time>
      </trkpt>
      <trkpt lat="52.178234" lon="22.176890">
        <ele>165.894520</ele>
        <time>2026-05-07T17:23:15.765Z</time>
      </trkpt>
      <trkpt lat="52.178154" lon="22.177426">
        <ele>165.096905</ele>
        <time>2026-05-07T17:23:18.590Z</time>
      </trkpt>
      <trkpt lat="52.178130" lon="22.177588">
        <ele>164.855934</ele>
        <time>2026-05-07T17:23:19.417Z</time>
      </trkpt>
      <trkpt lat="52.178076" lon="22.177992">
        <ele>164.258084</ele>
        <time>2026-05-07T17:23:21.425Z</time>
      </trkpt>
      <trkpt lat="52.178026" lon="22.178331">
        <ele>163.753953</ele>
        <time>2026-05-07T17:23:23.119Z</time>
      </trkpt>
      <trkpt lat="52.177828" lon="22.179627">
        <ele>161.897604</ele>
        <time>2026-05-07T17:23:29.886Z</time>
      </trkpt>
      <trkpt lat="52.177745" lon="22.180184">
        <ele>161.130346</ele>
        <time>2026-05-07T17:23:33.046Z</time>
      </trkpt>
      <trkpt lat="52.177668" lon="22.180724">
        <ele>160.388255</ele>
        <time>2026-05-07T17:23:36.088Z</time>
      </trkpt>
      <trkpt lat="52.177549" lon="22.181540">
        <ele>159.265550</ele>
        <time>2026-05-07T17:23:40.718Z</time>
      </trkpt>
      <trkpt lat="52.177249" lon="22.183515">
        <ele>156.923497</ele>
        <time>2026-05-07T17:23:51.332Z</time>
      </trkpt>
      <trkpt lat="52.177160" lon="22.184102">
        <ele>156.244825</ele>
        <time>2026-05-07T17:23:54.564Z</time>
      </trkpt>
      <trkpt lat="52.176522" lon="22.188419">
        <ele>154.394618</ele>
        <time>2026-05-07T17:24:24.116Z</time>
      </trkpt>
      <trkpt lat="52.176410" lon="22.189207">
        <ele>154.103892</ele>
        <time>2026-05-07T17:24:29.354Z</time>
      </trkpt>
      <trkpt lat="52.176388" lon="22.189366">
        <ele>154.045309</ele>
        <time>2026-05-07T17:24:30.373Z</time>
      </trkpt>
      <trkpt lat="52.176365" lon="22.189521">
        <ele>153.987992</ele>
        <time>2026-05-07T17:24:31.297Z</time>
      </trkpt>
      <trkpt lat="52.176341" lon="22.189697">
        <ele>153.923190</ele>
        <time>2026-05-07T17:24:32.338Z</time>
      </trkpt>
      <trkpt lat="52.176158" lon="22.190904">
        <ele>153.803571</ele>
        <time>2026-05-07T17:24:39.995Z</time>
      </trkpt>
      <trkpt lat="52.176106" lon="22.191246">
        <ele>153.880784</ele>
        <time>2026-05-07T17:24:42.374Z</time>
      </trkpt>
      <trkpt lat="52.176008" lon="22.191918">
        <ele>154.032148</ele>
        <time>2026-05-07T17:24:46.892Z</time>
      </trkpt>
      <trkpt lat="52.175675" lon="22.194164">
        <ele>155.122715</ele>
        <time>2026-05-07T17:25:10.498Z</time>
      </trkpt>
      <trkpt lat="52.175659" lon="22.194291">
        <ele>155.227912</ele>
        <time>2026-05-07T17:25:11.986Z</time>
      </trkpt>
      <trkpt lat="52.175644" lon="22.194407">
        <ele>155.324102</ele>
        <time>2026-05-07T17:25:13.319Z</time>
      </trkpt>
      <trkpt lat="52.175623" lon="22.194549">
        <ele>155.442622</ele>
        <time>2026-05-07T17:25:14.971Z</time>
      </trkpt>
      <trkpt lat="52.175569" lon="22.194919">
        <ele>155.751219</ele>
        <time>2026-05-07T17:25:19.208Z</time>
      </trkpt>
      <trkpt lat="52.175547" lon="22.195039">
        <ele>155.852843</ele>
        <time>2026-05-07T17:25:20.599Z</time>
      </trkpt>
      <trkpt lat="52.175252" lon="22.197030">
        <ele>156.657924</ele>
        <time>2026-05-07T17:25:38.432Z</time>
      </trkpt>
      <trkpt lat="52.175038" lon="22.198473">
        <ele>156.592398</ele>
        <time>2026-05-07T17:25:47.866Z</time>
      </trkpt>
      <trkpt lat="52.174494" lon="22.202151">
        <ele>155.985390</ele>
        <time>2026-05-07T17:26:13.683Z</time>
      </trkpt>
      <trkpt lat="52.174464" lon="22.202334">
        <ele>155.947676</ele>
        <time>2026-05-07T17:26:15.048Z</time>
      </trkpt>
      <trkpt lat="52.173816" lon="22.206724">
        <ele>154.760673</ele>
        <time>2026-05-07T17:26:45.151Z</time>
      </trkpt>
      <trkpt lat="52.173267" lon="22.210424">
        <ele>152.909358</ele>
        <time>2026-05-07T17:27:08.058Z</time>
      </trkpt>
      <trkpt lat="52.173202" lon="22.210856">
        <ele>152.824890</ele>
        <time>2026-05-07T17:27:11.116Z</time>
      </trkpt>
      <trkpt lat="52.173169" lon="22.211098">
        <ele>152.777812</ele>
        <time>2026-05-07T17:27:12.848Z</time>
      </trkpt>
      <trkpt lat="52.173146" lon="22.211237">
        <ele>152.750473</ele>
        <time>2026-05-07T17:27:13.797Z</time>
      </trkpt>
      <trkpt lat="52.173090" lon="22.211615">
        <ele>152.676627</ele>
        <time>2026-05-07T17:27:16.683Z</time>
      </trkpt>
      <trkpt lat="52.173010" lon="22.212160">
        <ele>152.570209</ele>
        <time>2026-05-07T17:27:20.812Z</time>
      </trkpt>
      <trkpt lat="52.172791" lon="22.213638">
        <ele>151.898387</ele>
        <time>2026-05-07T17:27:31.241Z</time>
      </trkpt>
      <trkpt lat="52.172752" lon="22.213912">
        <ele>151.625182</ele>
        <time>2026-05-07T17:27:32.990Z</time>
      </trkpt>
      <trkpt lat="52.172734" lon="22.214029">
        <ele>151.508020</ele>
        <time>2026-05-07T17:27:33.738Z</time>
      </trkpt>
      <trkpt lat="52.172591" lon="22.214989">
        <ele>150.548476</ele>
        <time>2026-05-07T17:27:39.221Z</time>
      </trkpt>
      <trkpt lat="52.172413" lon="22.216244">
        <ele>149.525967</ele>
        <time>2026-05-07T17:27:45.908Z</time>
      </trkpt>
      <trkpt lat="52.172146" lon="22.218078">
        <ele>149.525967</ele>
        <time>2026-05-07T17:27:55.542Z</time>
      </trkpt>
      <trkpt lat="52.171939" lon="22.219224">
        <ele>149.525967</ele>
        <time>2026-05-07T17:28:02.574Z</time>
      </trkpt>
      <trkpt lat="52.171819" lon="22.219753">
        <ele>149.525967</ele>
        <time>2026-05-07T17:28:06.299Z</time>
      </trkpt>
    </trkseg>
  </trk>
</gpx>